GFSNGP_925_spd_069.txt.gz
Wind_Speed
7 9 8 7 10 9 9 9 8 8 13 11 12 14 17 12 12 9 10 7 7 9 10 12 18 22 23 25 29 31 33 35 40 36 36 35 34 34 32 30 31 29 30 30
2 9 11 12 11 13 9 3 2 6 10 8 14 13 9 13 12 12 12 12 11 9 10 11 17 22 23 25 29 32 33 35 29 31 32 36 36 35 33 31 30 27 27 28
3 3 4 7 12 16 8 7 6 5 6 5 11 15 15 15 12 11 11 12 12 13 12 11 19 23 25 30 27 32 31 29 29 30 31 31 30 30 32 31 28 28 28 29
1 2 6 3 6 6 10 11 11 9 5 7 9 14 17 14 15 11 10 11 12 11 11 19 21 21 25 23 28 29 28 29 28 29 29 28 28 28 27 25 27 27 31 31
3 5 8 11 6 2 5 6 6 7 8 11 15 12 6 10 13 15 16 13 12 14 15 16 18 22 19 20 23 25 28 29 28 28 27 27 26 24 25 26 26 25 25 25
3 2 4 4 2 1 2 6 4 2 5 8 13 8 6 15 17 17 16 12 12 16 16 15 16 15 20 21 22 24 22 22 23 23 22 22 23 23 22 21 20 18 17 17
6 5 7 9 4 1 1 4 4 3 6 7 7 5 15 14 14 14 14 14 12 11 9 10 5 11 14 15 16 14 15 17 19 20 22 22 21 21 20 18 18 19 20 18
4 5 9 4 2 2 6 8 6 10 11 7 10 12 9 14 13 16 14 13 13 5 5 4 2 8 8 9 18 22 22 22 21 20 19 17 19 19 20 23 24 24 27 26
8 6 2 1 3 6 9 12 14 14 17 11 8 9 12 14 11 12 11 8 12 6 5 11 6 13 16 13 20 24 25 24 22 22 20 20 23 24 23 23 24 21 22 21
4 3 12 15 5 8 11 12 15 16 17 14 12 10 11 14 11 11 11 9 11 12 11 13 9 10 19 18 20 24 25 23 23 22 23 20 20 21 23 23 20 22 20 20
10 11 11 11 9 15 16 13 14 14 14 9 10 10 11 11 15 13 12 11 15 16 16 19 15 12 13 18 19 22 22 22 25 25 25 24 21 18 21 19 26 30 24 27
7 2 4 7 12 12 12 13 12 11 14 13 13 12 11 11 12 13 12 14 11 18 20 17 17 21 14 11 17 20 19 17 19 20 22 24 25 28 18 14 15 21 26 28
3 8 8 9 6 8 7 10 10 10 10 9 11 12 14 10 12 12 15 20 18 17 20 17 17 23 18 14 14 20 17 19 24 21 19 22 24 23 27 31 29 23 22 25
7 7 4 4 3 6 6 6 6 9 10 8 15 16 14 10 12 16 17 17 21 22 23 20 26 23 18 19 20 25 26 25 27 22 22 26 26 25 22 22 25 26 25 25
10 9 9 11 4 7 7 5 6 10 9 8 17 14 14 9 10 15 16 19 23 27 26 26 27 28 26 26 27 25 29 26 25 27 26 24 25 24 23 22 23 25 23 22
12 10 7 7 8 9 9 8 6 11 6 9 10 17 16 17 22 25 24 25 26 23 25 27 28 27 27 28 28 32 32 31 28 27 24 24 22 21 19 18 18 17 15 13
10 8 10 7 7 8 8 8 8 8 7 10 14 19 20 22 26 26 28 29 31 30 28 29 29 30 31 31 32 30 30 31 28 27 25 21 21 19 18 18 17 16 15 12
7 6 7 8 8 8 9 10 10 12 12 18 19 21 22 21 16 21 22 24 30 34 33 31 30 32 32 30 29 26 27 27 26 24 21 22 19 17 17 17 17 16 15 14
11 10 12 12 14 12 11 12 16 19 19 21 24 23 25 25 23 23 24 28 28 25 24 28 30 32 30 26 25 24 25 25 24 24 22 21 20 17 16 16 16 15 13 11
12 16 16 18 20 19 16 17 21 22 20 22 24 25 24 23 22 24 27 29 26 21 21 25 25 26 24 24 23 21 22 21 21 20 19 18 17 16 15 16 13 12 11 10
12 14 15 17 18 20 20 19 21 22 21 23 25 23 23 22 21 20 23 21 22 23 24 25 23 20 19 18 20 20 20 20 19 17 17 16 16 14 13 12 11 9 8 8
14 14 16 18 20 21 22 22 22 22 22 22 21 21 22 21 23 28 26 20 16 20 20 20 22 20 19 19 19 19 18 18 17 16 16 14 13 12 10 10 10 9 8 7
16 17 18 18 19 20 22 22 22 22 22 21 21 20 21 19 16 16 15 15 17 21 21 23 20 20 20 21 20 20 19 19 16 15 14 13 12 10 9 8 8 6 5 5
17 17 17 17 17 19 19 18 19 20 22 21 22 18 16 18 19 17 17 19 20 21 21 19 17 17 17 17 17 17 17 15 14 12 11 10 10 9 8 7 6 6 7 7
15 15 14 14 15 14 15 14 15 15 16 17 16 16 16 14 15 13 16 17 16 17 17 15 13 12 13 13 14 14 13 12 10 9 8 7 7 6 6 6 7 8 10 10
12 12 14 15 13 12 11 12 13 11 12 15 15 15 18 18 17 16 15 14 14 13 14 13 12 11 11 11 10 10 9 8 8 8 7 5 5 5 6 8 11 12 12 11
13 12 13 14 13 12 12 12 12 11 11 12 13 11 15 14 14 13 11 11 11 11 11 11 10 8 8 8 7 7 7 7 6 5 5 5 5 7 10 12 12 11 11 11

GFSNGP_925_spd_072.txt.gz
Wind_Speed
6 4 4 6 7 6 9 8 9 11 13 12 13 14 15 16 17 17 18 15 11 10 9 10 17 22 26 28 31 33 34 35 38 36 34 33 33 34 35 35 36 36 36 37
9 8 10 13 13 12 12 11 11 11 12 9 7 11 14 16 17 16 17 17 14 11 11 11 14 19 23 27 31 32 34 36 33 32 33 34 33 32 33 34 35 34 34 35
9 3 7 10 17 18 16 12 11 10 7 6 12 13 16 18 19 18 18 19 18 16 12 12 17 19 23 27 26 31 33 31 31 30 31 32 31 32 33 34 32 32 32 32
2 4 6 2 1 4 8 11 10 10 9 9 10 13 16 8 12 16 17 19 19 15 13 18 17 18 21 21 26 28 29 29 29 30 30 28 28 30 29 28 30 29 29 30
4 9 13 16 10 8 7 2 3 6 7 7 9 12 8 8 14 16 18 18 16 24 20 18 15 13 15 19 24 26 29 31 30 29 28 28 28 26 24 23 22 23 23 28
5 5 5 3 3 3 2 4 7 6 9 12 13 8 8 17 17 18 18 20 18 21 20 19 18 12 16 19 21 26 27 28 26 27 26 27 25 24 24 23 24 24 23 22
11 7 4 8 6 4 5 4 11 12 13 13 10 10 13 16 16 16 19 22 23 19 14 16 17 12 15 15 17 20 19 20 22 23 23 20 22 23 23 22 19 16 14 11
9 8 9 3 3 7 7 9 12 13 14 15 15 14 12 12 15 14 16 20 21 16 14 16 16 12 10 3 4 8 10 14 14 15 19 22 25 21 20 25 24 22 19 17
8 8 4 3 3 8 8 9 11 11 14 16 15 13 12 9 11 12 15 19 22 15 13 19 20 14 2 3 9 12 13 15 20 20 19 17 23 24 26 18 19 19 22 20
9 8 12 5 4 8 11 10 11 12 12 14 15 14 8 8 12 10 11 15 23 19 15 16 20 23 16 7 9 15 16 20 17 21 21 17 17 19 21 22 19 20 20 19
13 12 10 13 6 10 12 9 10 11 11 12 13 11 10 8 10 11 14 18 18 19 17 16 15 19 23 20 10 16 18 19 21 21 22 24 21 15 16 18 19 23 23 26
8 7 4 9 10 10 12 12 11 12 12 11 11 11 9 7 10 13 15 19 17 19 21 20 13 21 24 20 15 12 16 17 19 19 20 21 24 28 20 20 19 24 29 31
4 8 7 10 12 6 10 13 10 9 9 10 9 9 8 6 10 17 21 17 17 18 18 17 20 22 22 19 15 21 19 16 20 21 19 19 19 22 28 35 34 27 27 30
7 10 8 5 7 10 10 11 9 7 8 10 10 10 9 7 14 20 18 13 15 17 20 22 25 31 26 25 23 22 25 25 19 22 26 23 21 19 24 24 27 27 29 30
8 7 7 8 6 8 8 8 7 8 9 9 12 13 13 9 12 19 14 15 19 23 25 26 25 25 25 26 27 29 28 27 24 27 26 28 27 24 26 24 25 26 26 26
12 6 5 5 6 7 8 9 7 8 8 9 11 14 16 15 21 22 23 22 23 22 24 26 27 27 26 25 26 28 31 31 28 26 24 23 24 24 21 21 20 18 17 15
9 4 8 5 5 8 9 7 7 8 9 11 14 13 15 16 19 21 23 24 27 29 28 28 26 28 28 26 26 26 26 28 26 27 24 23 23 20 19 19 18 17 16 15
3 3 4 4 5 7 10 8 12 14 13 17 17 17 15 16 16 19 19 22 27 32 31 29 27 28 30 26 23 22 22 22 21 21 20 20 20 19 18 18 16 16 15 15
7 7 8 10 11 11 11 12 15 18 17 17 19 18 19 19 20 21 22 26 26 25 24 23 24 25 25 23 21 21 21 20 20 21 20 19 19 18 17 16 16 14 13 12
10 13 15 17 16 16 16 16 17 18 16 17 17 18 20 19 19 22 26 29 25 20 19 20 21 23 22 22 20 20 19 20 20 19 19 18 17 16 17 16 14 12 11 10
12 16 17 17 19 19 18 17 19 19 18 18 20 20 20 20 19 17 20 20 20 19 19 22 21 18 19 17 18 18 18 18 17 17 15 15 14 14 13 12 10 9 9 8
13 14 15 17 19 20 18 19 19 18 18 18 17 17 18 20 20 23 23 18 16 17 18 19 19 20 19 18 18 18 17 17 15 14 15 14 13 12 11 10 9 9 8 6
14 15 16 17 18 19 19 19 19 18 19 19 19 19 19 17 15 13 14 17 15 16 17 18 17 18 18 17 16 16 16 16 15 14 13 12 11 10 9 8 7 6 6 6
14 15 16 15 15 16 17 16 17 17 18 18 16 14 13 14 16 15 13 14 15 16 16 15 15 16 15 14 14 14 14 13 12 11 10 9 8 7 7 7 6 6 6 6
13 13 12 12 13 12 13 12 13 13 14 15 15 15 15 14 13 11 11 12 13 12 12 13 14 13 12 12 12 11 11 10 9 8 7 6 6 6 5 6 6 7 7 7
11 12 13 13 12 10 9 8 9 9 9 11 12 12 12 11 11 10 10 10 11 11 10 10 10 9 10 9 9 9 8 7 7 6 6 5 5 5 6 7 7 7 7 7
11 10 10 12 12 11 9 8 8 9 8 9 10 9 9 9 10 9 9 8 9 9 9 8 8 8 7 7 7 7 7 6 6 4 4 4 4 5 7 8 7 7 7 7

GFSNGP_925_spd_075.txt.gz
Wind_Speed
7 8 3 6 7 10 13 14 12 14 13 10 10 10 11 12 13 12 13 14 15 14 10 7 14 20 25 28 30 32 33 33 37 35 34 34 33 35 36 37 37 38 38 39
13 6 7 10 12 11 12 11 12 12 15 13 6 7 7 11 14 16 17 17 16 15 18 11 10 16 21 25 29 31 33 35 34 33 34 35 34 34 34 35 37 36 38 38
11 9 7 10 15 16 14 15 13 13 6 8 7 8 9 11 10 12 13 14 15 17 17 16 14 12 17 23 24 28 31 32 33 33 34 35 34 34 35 36 34 37 36 36
7 1 10 6 1 4 10 13 13 11 5 7 8 10 12 11 7 12 14 16 16 15 16 21 20 20 18 19 23 27 29 31 32 32 33 33 33 35 34 34 35 35 35 35
5 9 13 15 11 10 9 8 3 0 3 7 9 11 12 8 13 14 13 14 15 23 25 25 24 22 19 19 22 26 27 30 32 32 31 31 32 33 31 30 30 31 29 30
6 11 10 6 4 4 3 7 8 5 5 7 10 7 7 16 15 16 16 16 17 22 23 26 28 27 24 21 22 24 25 29 28 29 30 30 28 27 27 28 26 24 24 21
12 9 7 3 5 2 11 5 3 6 7 9 9 10 15 15 13 14 16 18 20 21 20 22 26 27 26 22 20 20 20 21 25 27 27 28 26 26 26 20 22 21 20 15
9 6 15 8 5 7 8 4 8 8 10 11 12 14 14 14 12 14 15 16 20 18 20 23 26 28 25 20 21 14 10 6 8 12 16 21 17 14 18 24 24 20 21 19
10 8 4 2 7 7 8 8 10 11 12 11 11 13 16 13 12 13 15 16 18 17 19 23 26 25 24 26 23 18 7 8 7 8 9 10 14 21 20 17 18 17 14 20
1 5 1 10 2 12 10 10 10 12 12 13 13 13 14 13 10 11 13 16 17 17 17 22 27 25 24 25 21 19 17 13 12 16 18 17 14 12 14 16 17 18 19 17
10 11 10 1 12 12 11 12 13 13 12 12 13 13 12 10 11 11 13 16 16 15 15 21 25 24 25 24 17 21 22 22 19 20 19 30 26 18 15 12 12 15 19 14
4 10 7 9 12 13 11 13 13 14 13 12 12 13 14 9 12 13 13 15 14 15 18 21 21 25 27 21 16 15 22 22 21 19 18 24 27 31 33 27 22 24 28 22
5 9 8 9 11 12 10 12 12 11 11 12 12 12 12 10 14 15 14 14 15 15 18 21 24 26 30 25 19 10 20 22 26 20 20 19 19 25 29 39 40 38 36 32
10 11 0 9 7 10 10 10 10 11 12 12 12 13 12 12 15 17 17 16 15 16 20 23 24 25 26 25 23 20 27 24 25 28 24 22 24 23 25 27 28 33 34 34
10 8 6 6 6 8 8 8 6 8 8 9 13 13 13 13 15 18 19 16 16 18 25 24 23 25 25 26 31 31 29 23 24 29 30 24 27 27 25 30 30 28 28 29
10 6 3 3 4 7 8 8 7 7 7 9 12 15 16 17 19 19 22 20 20 20 21 25 26 25 25 26 28 30 30 30 26 25 23 22 24 24 23 23 22 21 18 15
8 6 8 7 6 7 8 7 7 7 8 12 14 13 15 16 19 21 21 23 23 26 27 28 27 27 30 28 26 26 26 27 25 27 26 24 25 25 23 22 21 22 23 24
4 4 5 5 5 5 7 7 10 11 12 15 16 16 17 17 17 19 19 19 22 28 29 28 28 28 30 27 26 26 26 24 23 22 21 21 21 21 21 20 18 18 18 19
8 7 8 9 10 10 10 11 13 14 15 16 18 19 19 20 20 20 20 22 23 23 26 25 25 26 27 25 22 22 22 20 21 22 21 20 22 21 19 19 18 16 15 14
10 11 13 15 15 15 14 14 15 16 16 17 18 18 19 17 15 17 20 24 21 19 19 21 20 22 21 21 19 19 19 19 19 19 18 18 18 17 17 16 14 13 12 12
11 14 15 16 16 16 15 14 16 18 17 18 19 19 18 18 22 16 16 17 19 17 18 21 22 18 19 18 19 18 18 17 17 17 16 15 14 14 13 12 12 11 11 10
12 13 14 15 16 18 17 17 17 17 17 17 15 13 13 14 16 19 20 16 15 15 16 17 18 19 17 17 18 18 17 16 16 15 14 13 12 12 12 11 10 9 9 8
14 14 15 15 17 17 17 18 18 17 17 16 16 16 16 15 14 12 12 15 14 15 15 17 17 17 17 17 16 16 16 15 14 13 12 12 11 10 9 9 8 7 7 7
14 14 14 14 13 15 15 14 15 15 15 15 15 15 11 10 12 12 11 12 14 15 16 16 16 16 15 15 14 14 13 13 12 11 10 9 8 8 7 7 7 7 6 6
12 12 11 10 11 11 11 11 11 11 11 12 11 12 13 13 11 9 10 11 12 11 11 13 14 14 13 13 12 12 11 10 9 8 8 7 7 6 6 6 6 6 6 6
10 10 11 10 9 8 7 6 7 7 7 7 8 9 9 9 9 8 8 9 9 10 9 10 10 10 10 10 10 9 8 7 7 7 6 5 5 5 6 6 6 6 6 5
8 7 8 8 8 7 7 6 5 6 5 5 6 6 6 6 6 6 7 7 7 8 8 8 8 9 8 8 8 7 7 7 7 6 5 5 5 6 6 7 6 6 6 6

GFSNGP_925_spd_078.txt.gz
Wind_Speed
13 10 11 4 12 11 13 14 9 9 14 6 6 9 14 6 6 10 13 15 15 15 16 17 16 14 20 22 25 29 30 29 34 32 31 31 33 34 35 35 36 38 37 40
14 10 10 16 11 13 12 18 9 7 12 14 17 4 8 9 9 13 13 13 14 14 15 16 21 20 13 21 25 27 30 34 31 31 32 34 34 34 35 37 38 38 39 40
12 8 13 9 11 11 10 9 9 9 10 4 5 8 8 7 9 10 10 11 11 12 13 17 24 28 24 20 16 26 30 33 31 31 33 35 35 34 37 38 37 40 39 39
8 8 7 10 10 4 8 14 15 15 7 3 3 6 9 9 14 11 10 9 8 11 14 20 27 32 33 34 27 17 26 29 31 32 34 33 34 37 37 36 37 36 38 38
8 7 12 15 6 3 7 8 11 15 3 8 8 5 14 15 12 8 9 10 13 22 22 23 26 30 30 28 29 29 26 24 29 30 29 30 31 35 35 32 33 35 33 34
5 7 6 7 15 3 5 7 11 9 9 7 5 5 8 13 11 8 11 18 17 19 18 18 21 23 23 23 26 29 35 33 27 30 31 31 33 31 30 31 31 28 29 33
9 7 5 6 10 8 11 4 8 7 10 10 8 8 11 13 10 12 14 19 20 18 16 18 19 18 19 21 24 28 31 31 31 24 29 32 31 30 28 27 26 28 23 15
7 6 12 6 6 8 10 10 9 10 11 10 9 10 11 12 14 15 15 19 20 16 16 19 20 19 17 18 23 25 25 25 28 29 20 5 23 20 22 25 24 21 18 15
9 7 8 6 13 8 8 8 11 12 13 12 11 10 12 12 14 14 16 19 20 18 18 20 22 21 19 21 20 19 21 23 26 20 22 17 11 15 16 18 21 20 19 18
2 6 5 10 15 11 11 12 14 12 11 11 10 12 12 12 14 13 17 19 20 19 18 18 21 21 20 21 19 15 17 22 24 26 26 24 19 12 12 13 14 12 13 17
5 10 5 13 12 8 15 14 13 12 12 12 12 12 14 14 14 14 18 20 20 20 19 21 21 22 23 22 18 15 17 19 23 24 25 25 33 26 20 13 12 19 19 20
2 8 10 10 9 14 14 12 11 11 10 11 13 11 11 10 13 15 16 17 17 18 19 20 21 21 22 22 16 15 17 20 21 23 22 23 22 32 42 40 34 31 27 34
5 10 9 14 15 14 11 12 13 13 13 11 12 12 12 8 14 15 17 18 19 19 19 20 21 23 26 23 22 25 20 21 22 20 25 20 22 21 25 41 49 46 42 36
13 14 7 15 8 11 11 11 12 14 14 13 13 14 14 13 15 17 18 18 19 20 23 23 22 24 25 25 24 27 26 26 24 22 25 22 26 18 26 22 30 35 36 37
13 9 7 7 9 13 13 12 10 11 10 11 14 14 15 14 16 18 18 18 21 24 26 27 28 30 25 23 29 27 25 24 25 24 24 25 26 23 24 23 28 27 27 31
12 11 10 10 11 11 11 10 9 9 9 10 13 15 16 18 19 21 22 23 24 23 25 28 29 28 29 26 24 25 29 28 26 25 24 23 24 22 23 26 25 24 22 22
9 10 9 9 8 9 9 8 9 9 10 12 13 13 15 16 17 20 21 23 26 26 27 30 26 29 27 26 28 26 24 25 25 24 23 23 22 23 24 26 26 25 26 28
8 8 8 8 8 8 10 10 13 13 13 15 15 17 17 17 15 19 20 20 21 27 28 28 27 28 29 27 25 23 24 24 25 25 24 23 23 22 22 23 22 22 24 25
13 11 13 13 13 13 13 14 15 15 15 15 16 16 16 18 19 19 20 22 23 23 26 24 24 24 25 24 22 22 22 22 21 21 22 23 23 22 21 22 21 20 20 20
13 15 16 17 17 16 15 15 16 17 17 17 17 17 18 18 15 17 20 24 22 19 20 23 21 23 21 23 21 21 21 20 19 20 20 20 20 19 20 21 18 18 18 17
11 14 13 14 15 16 17 16 17 17 16 16 16 15 16 17 23 18 16 16 20 18 19 20 23 20 20 20 22 22 21 19 19 19 18 18 18 19 18 18 17 17 17 16
12 12 13 14 15 17 17 17 18 18 17 19 18 12 11 12 16 20 22 16 15 16 18 19 20 21 20 19 20 20 20 19 19 18 18 18 17 17 16 15 14 14 13 11
13 14 14 14 15 16 16 16 16 15 15 15 13 12 14 14 13 12 11 14 14 15 15 17 17 17 17 17 17 17 17 16 16 16 15 14 14 13 11 12 11 10 8 10
13 13 13 12 12 13 14 12 13 13 14 13 15 16 12 11 13 12 10 10 9 14 15 15 15 15 14 15 14 14 13 15 13 12 11 11 10 9 8 8 8 8 7 6
10 10 10 10 10 10 10 10 10 9 10 10 10 11 11 12 10 8 9 9 11 9 10 11 12 12 13 13 13 13 11 11 11 9 9 8 7 7 6 7 6 5 5 5
8 8 9 9 7 6 5 5 7 6 6 8 8 8 8 8 8 7 8 8 9 9 9 9 13 11 11 11 10 10 10 8 8 7 7 7 6 7 6 6 6 6 5 5
7 5 6 7 7 7 8 8 7 7 7 6 7 6 6 6 6 6 7 8 8 8 8 9 8 9 11 10 9 9 9 9 10 10 7 7 7 7 7 7 7 6 6 6

GFSNGP_925_spd_081.txt.gz
Wind_Speed
9 12 8 7 8 6 11 12 6 2 10 9 4 11 6 13 9 15 14 13 13 13 12 13 22 24 22 21 23 32 31 31 34 35 36 34 37 38 38 39 40 40 39 40
8 10 13 7 9 8 3 3 8 6 9 10 10 4 5 13 10 12 11 10 11 15 16 15 20 21 23 23 24 12 27 33 30 35 37 39 39 36 36 38 40 38 41 42
4 8 6 5 9 10 12 16 14 9 8 12 7 9 3 10 10 8 7 13 14 14 14 18 20 19 22 22 22 20 16 20 25 29 34 38 36 34 38 39 36 38 38 38
3 7 5 6 6 10 12 8 9 3 6 11 15 16 12 6 7 11 15 14 14 12 18 23 27 31 24 20 21 22 23 22 25 17 27 31 32 36 38 37 37 37 38 37
2 3 9 14 2 3 1 3 7 5 11 11 12 11 11 11 13 14 14 12 15 19 19 22 26 29 28 27 25 21 22 24 23 26 26 22 30 36 38 34 34 36 36 36
2 4 5 10 5 9 2 3 11 15 14 15 14 8 5 16 16 16 16 21 20 20 22 25 26 27 23 24 25 26 26 24 22 25 27 25 21 31 34 34 35 33 32 34
7 4 7 4 4 6 4 2 10 14 12 13 12 5 8 14 17 20 21 24 21 22 21 21 23 23 21 21 24 27 26 23 21 22 23 25 29 22 28 31 31 30 31 28
4 4 7 7 3 3 3 8 12 14 13 12 12 14 16 17 17 17 17 23 24 21 20 21 22 22 20 21 26 25 24 23 21 21 23 25 27 24 20 16 31 25 23 15
7 6 3 10 12 10 9 11 13 13 12 12 14 15 14 14 16 15 19 20 21 19 17 19 21 21 20 24 26 23 22 22 24 21 25 25 29 30 25 22 8 8 13 15
2 11 13 15 15 16 12 15 14 11 11 11 12 12 13 13 12 11 17 18 18 18 18 19 22 21 21 24 23 18 19 20 22 23 24 30 31 30 27 25 17 14 14 15
3 10 14 11 12 10 13 15 11 12 13 12 12 12 11 11 12 13 16 17 18 19 18 20 21 22 24 25 20 15 16 18 19 21 22 25 37 34 32 35 20 16 16 17
4 10 9 6 10 11 13 11 13 12 14 15 12 10 10 10 12 13 14 15 16 17 16 18 21 23 24 23 20 15 14 17 19 19 20 21 23 34 46 47 45 39 38 30
3 6 13 13 11 11 9 12 14 14 12 12 14 14 14 11 14 14 16 16 17 16 17 19 19 22 27 25 24 23 19 19 19 21 19 18 20 21 25 38 47 41 41 43
11 9 8 10 7 11 12 16 20 19 17 15 16 17 16 15 15 16 16 16 15 17 20 20 22 27 25 27 26 23 23 25 24 24 22 22 21 21 22 24 27 27 36 36
14 10 10 12 12 11 13 11 13 11 11 14 16 17 17 15 16 17 17 16 18 21 22 24 24 27 25 25 27 28 24 25 25 26 26 22 19 22 21 23 23 23 24 30
9 12 11 10 11 10 10 11 12 10 10 13 15 18 19 19 19 21 21 21 21 20 22 24 27 27 25 24 26 28 29 26 25 24 24 23 22 24 23 25 25 23 23 23
6 11 10 9 10 11 10 9 10 10 12 14 14 15 18 19 19 19 19 22 25 23 24 26 26 27 26 25 25 25 26 26 25 25 23 22 23 24 23 23 22 23 24 26
10 10 10 9 9 10 11 14 15 16 14 16 19 19 18 17 15 16 17 19 23 27 27 24 24 25 25 24 24 23 24 24 24 23 22 23 23 23 22 21 20 19 21 22
14 12 13 15 13 13 13 14 16 16 16 16 18 17 18 18 18 18 19 19 19 19 23 20 21 22 23 21 21 22 25 25 23 20 19 21 22 21 20 19 19 19 19 20
12 14 15 16 17 16 15 16 17 17 17 19 19 18 17 15 15 17 19 19 18 16 17 18 19 21 21 20 21 23 24 22 21 22 23 23 23 22 22 21 21 21 21 20
9 13 13 14 15 17 17 16 16 15 16 18 18 16 16 18 17 13 14 14 16 13 15 20 21 18 20 20 20 21 22 23 23 22 21 22 23 22 22 21 21 20 18 18
11 11 13 14 14 15 17 18 18 18 17 16 12 13 13 13 17 19 17 13 14 13 16 19 20 18 18 19 21 21 20 21 21 20 20 19 18 19 19 16 15 17 15 13
10 11 12 12 12 13 16 16 16 16 17 15 14 14 15 14 13 11 9 12 14 14 17 18 16 16 17 17 17 19 20 19 18 17 16 14 13 13 14 15 13 12 11 10
11 11 12 14 13 10 10 12 13 14 14 14 15 15 11 14 14 13 11 9 10 13 14 14 14 14 14 17 15 17 15 16 16 15 13 13 12 11 9 9 8 7 6 5
11 11 11 11 8 8 10 10 10 11 11 11 11 12 12 12 11 9 10 10 10 9 13 10 11 12 14 14 14 12 12 11 10 11 10 9 9 7 7 7 8 7 6 7
9 9 11 11 9 5 4 7 10 10 12 13 11 9 9 9 8 8 8 8 8 8 7 9 14 12 9 11 10 11 11 10 12 6 9 7 6 6 6 7 5 6 7 8
7 5 7 7 7 10 12 13 13 12 11 13 12 9 8 9 8 7 6 7 7 7 8 8 9 10 8 7 9 7 8 8 8 8 6 7 6 7 8 9 10 7 5 7

GFSNGP_925_spd_084.txt.gz
Wind_Speed
5 7 8 11 12 8 8 10 5 6 7 4 3 8 9 12 10 12 16 17 17 15 13 15 20 20 19 21 18 15 21 25 28 32 34 33 35 38 38 39 42 39 40 41
5 6 10 10 16 9 10 5 4 6 5 5 4 8 8 8 12 12 15 15 16 14 15 16 18 19 19 22 25 18 13 11 15 21 24 29 33 37 37 40 39 37 40 39
4 4 7 5 12 13 10 8 10 7 6 11 6 5 8 10 5 11 14 16 15 15 13 16 17 19 21 22 22 23 22 22 18 15 8 25 28 29 36 39 34 39 39 40
4 5 4 5 18 12 14 8 16 7 7 19 15 7 5 8 13 13 15 14 12 10 16 20 18 21 17 21 23 23 23 21 20 22 19 16 12 23 33 33 34 37 39 40
3 3 7 18 6 5 3 1 12 11 16 19 15 18 15 14 14 14 13 12 13 16 16 16 22 22 20 22 21 22 24 23 22 20 20 18 18 20 18 28 32 36 39 37
2 3 3 7 9 7 9 2 12 9 15 11 13 10 7 10 13 15 15 16 17 18 19 22 24 20 21 22 24 24 23 21 20 19 19 19 21 22 21 21 27 35 36 38
4 4 6 9 13 11 4 3 5 12 11 14 11 8 12 12 15 18 17 20 19 21 21 21 23 21 20 20 22 21 22 21 21 21 19 20 23 21 20 21 22 21 28 25
4 4 9 11 9 4 4 9 10 11 12 15 15 14 13 13 13 14 12 17 18 17 18 21 22 21 19 20 19 19 20 21 23 25 27 23 24 26 25 22 18 14 9 13
5 5 6 10 11 9 7 9 8 10 9 11 13 12 12 11 11 11 14 15 16 16 15 18 18 19 17 19 18 15 17 18 22 22 28 26 26 27 26 23 19 16 16 17
2 7 12 13 15 15 11 11 11 10 10 11 12 12 10 9 10 10 14 15 15 16 16 17 18 17 16 16 14 12 14 16 17 20 24 29 28 27 27 25 19 16 15 16
3 8 10 13 13 12 13 12 15 13 14 10 11 12 12 11 10 12 13 14 15 16 15 16 16 17 18 19 13 12 13 14 15 17 19 24 34 35 31 37 29 20 19 17
1 7 7 7 8 10 9 12 13 11 10 14 13 11 11 10 13 14 13 14 15 17 17 18 19 21 22 21 20 16 16 17 17 17 17 18 20 27 41 44 43 38 29 25
4 8 9 7 12 11 11 11 12 12 10 12 14 14 14 11 14 14 15 17 18 17 18 21 22 26 24 22 21 23 19 18 18 19 19 19 19 17 18 28 38 43 39 37
6 5 9 10 7 10 13 13 17 14 14 15 14 15 15 15 15 17 18 17 18 20 22 22 22 23 21 21 22 22 22 23 22 20 18 20 19 19 19 19 22 25 31 34
12 12 11 9 11 10 10 9 9 8 9 11 13 14 13 14 15 16 17 16 18 22 23 23 23 24 20 21 24 24 22 22 22 24 23 23 22 23 23 22 23 22 24 28
6 9 8 10 9 8 7 7 8 8 9 11 13 14 15 16 18 19 22 23 20 18 21 24 25 22 20 19 21 23 23 22 22 22 22 22 21 21 22 21 22 23 24 22
3 7 4 7 7 7 7 6 7 7 9 11 13 14 15 16 18 18 19 21 23 24 24 24 22 20 19 17 19 19 20 21 21 21 20 19 19 19 19 20 20 21 22 23
9 9 9 7 7 7 8 9 10 11 10 12 15 16 16 14 12 13 16 17 20 24 25 23 19 18 18 18 17 17 18 19 20 19 17 18 18 18 19 19 19 19 19 20
10 8 10 10 10 11 11 11 11 12 14 15 16 14 15 15 14 14 15 17 17 16 19 17 17 17 17 15 15 17 18 17 18 18 18 18 19 19 20 20 20 20 20 20
10 11 11 13 13 12 11 13 15 15 15 17 16 14 13 13 13 14 15 17 16 11 13 14 15 16 16 14 14 15 16 17 18 18 19 19 19 19 18 18 18 18 17 18
9 13 13 13 14 15 15 14 15 14 14 15 16 14 14 12 10 9 11 11 13 12 15 16 15 14 14 15 16 16 16 17 18 18 18 19 19 19 18 16 16 15 14 12
12 11 13 14 13 14 15 15 15 14 13 14 14 13 14 13 14 15 12 10 10 12 15 15 15 13 13 14 16 17 17 16 16 15 16 15 15 16 15 14 12 11 10 9
11 11 12 12 11 12 14 14 13 13 13 12 11 11 10 8 6 6 8 10 10 11 13 14 12 13 13 13 14 14 15 15 14 12 12 12 11 10 10 9 8 6 5 6
12 12 12 13 13 10 9 11 11 12 13 12 10 9 8 11 10 8 9 11 9 9 10 10 11 12 11 12 13 11 11 10 10 10 8 7 6 6 6 5 4 4 4 4
10 10 10 9 7 7 9 9 9 10 10 9 8 9 8 6 8 8 8 8 8 10 10 7 7 7 9 9 9 9 10 8 6 5 6 5 4 5 6 6 4 3 4 6
9 8 9 8 5 4 8 9 9 10 11 12 10 8 8 8 8 7 7 5 5 5 7 8 9 6 8 7 6 6 6 7 6 3 3 4 5 5 6 7 8 8 8 7
6 7 8 9 8 8 8 9 10 9 10 11 12 9 8 7 6 5 5 4 4 4 4 4 4 4 3 5 4 5 5 6 5 6 5 5 6 6 6 7 9 11 7 6

GFSNGP_925_spd_087.txt.gz
Wind_Speed
4 6 6 9 11 11 8 9 6 7 10 5 3 7 4 13 13 12 14 16 14 12 13 14 20 22 20 22 23 1 17 19 20 25 25 29 28 30 32 33 36 36 36 38
3 7 8 9 11 12 8 9 9 11 13 7 4 5 7 6 8 13 14 16 14 12 17 15 19 20 21 22 24 22 23 20 3 11 20 25 28 29 29 34 36 34 36 36
3 7 9 5 4 7 4 5 3 4 5 1 0 4 8 7 11 12 12 12 14 14 14 14 19 21 20 20 21 23 21 20 18 14 11 11 5 18 29 33 31 34 36 37
3 4 3 6 12 10 5 7 5 13 8 8 9 14 13 8 13 11 10 12 12 11 17 17 19 20 17 19 21 21 22 22 21 18 15 15 12 11 12 10 21 32 36 38
2 3 6 10 4 5 8 11 4 9 5 12 13 16 13 14 16 11 12 10 11 15 15 13 18 17 18 20 20 21 21 20 20 19 16 15 16 16 16 18 19 20 22 33
1 3 5 5 4 10 9 6 9 6 21 18 11 5 4 11 12 11 14 14 13 16 14 17 19 14 15 17 17 19 18 17 19 20 18 18 17 17 18 17 17 20 21 16
5 5 6 4 8 7 1 4 9 10 5 4 5 7 12 11 11 12 13 12 10 12 12 15 18 15 15 15 17 13 14 14 18 21 18 20 19 19 18 17 17 18 14 14
2 5 8 7 5 3 2 10 10 12 12 15 14 14 12 11 10 10 11 12 12 12 13 16 18 15 14 15 12 11 11 16 19 20 19 18 20 22 21 20 18 20 19 19
4 3 8 11 12 9 10 11 10 12 11 11 12 11 10 8 10 10 10 10 12 12 11 16 17 15 13 13 12 12 12 14 18 22 23 22 24 23 21 19 18 17 17 17
4 8 10 9 13 14 15 15 15 13 12 12 12 11 9 8 9 10 12 13 14 13 15 17 18 18 18 16 12 14 15 16 18 21 25 28 25 26 28 24 19 17 16 16
3 4 4 10 11 10 13 13 14 14 13 12 11 11 9 7 7 9 10 13 14 16 17 17 18 20 21 19 14 13 16 14 13 15 19 24 32 32 29 36 29 20 22 21
3 6 4 5 8 11 13 12 13 10 12 13 12 10 9 8 7 9 11 12 15 16 14 15 16 19 20 19 16 13 13 15 16 16 19 18 17 21 31 35 36 36 33 27
3 6 8 6 9 12 12 10 11 11 11 9 12 12 12 9 11 12 15 16 16 14 14 15 18 22 20 19 18 18 16 14 15 15 17 17 19 17 14 18 27 33 33 32
8 1 6 11 5 8 9 10 13 15 13 14 13 13 12 11 12 15 15 14 14 15 18 19 21 22 19 18 20 20 19 20 20 21 22 23 23 22 21 19 18 22 26 29
9 8 7 6 7 8 8 7 8 9 8 10 12 11 12 12 13 12 11 12 15 20 21 21 22 22 18 18 21 21 21 21 21 22 22 22 23 24 23 22 20 20 25 28
3 5 6 7 7 7 8 8 7 7 7 10 11 13 13 13 13 15 19 20 18 17 20 22 22 19 18 17 18 20 20 19 20 20 20 21 21 21 21 21 22 23 25 23
1 2 3 4 5 7 8 6 6 6 10 11 11 12 13 13 16 18 19 20 21 22 22 22 19 17 16 15 17 18 19 19 19 20 20 20 20 20 20 21 21 22 23 21
5 6 8 6 5 5 6 8 8 9 9 10 12 14 15 14 11 13 13 14 16 20 21 19 16 15 16 15 15 15 16 17 17 18 18 19 19 19 19 20 20 20 20 20
6 5 7 9 8 9 8 8 10 11 12 13 15 15 14 13 12 11 11 15 17 17 19 16 15 16 16 14 13 15 16 16 17 17 17 17 18 18 18 18 19 19 19 19
8 8 9 10 10 10 10 12 14 15 14 15 15 14 12 11 9 10 12 15 14 11 12 12 13 14 14 13 12 14 14 15 16 16 16 17 17 17 17 16 16 16 16 16
8 12 12 13 14 14 13 12 14 13 11 10 12 10 9 7 6 7 10 10 12 10 11 13 13 13 12 12 13 14 15 16 17 16 15 16 16 15 15 14 14 12 12 11
11 11 12 12 13 13 13 14 14 14 13 12 10 10 10 9 9 10 10 8 9 9 11 12 12 11 11 11 13 14 14 15 14 13 13 13 12 12 11 9 10 9 8 7
10 10 10 11 12 12 11 11 10 10 9 7 6 5 4 3 2 3 5 5 6 7 9 10 10 10 10 11 12 12 12 12 12 12 11 10 9 9 8 7 5 5 5 5
10 9 11 11 11 10 9 8 9 8 8 6 6 4 3 5 6 6 7 6 6 5 7 7 7 7 8 10 10 9 9 8 7 6 6 6 6 7 7 7 5 4 4 5
9 9 10 9 5 5 8 8 6 6 6 6 5 3 1 3 1 5 4 4 6 7 6 5 5 7 7 6 7 8 9 6 4 4 4 4 4 5 5 6 6 6 7 7
6 6 4 2 1 5 8 9 9 9 8 8 6 5 5 6 5 4 2 2 1 1 4 4 4 4 6 6 5 5 6 6 5 6 5 5 6 6 6 6 7 9 8 7
8 7 6 4 3 3 2 4 10 10 10 9 8 7 5 4 4 3 3 1 1 1 1 1 2 2 2 5 4 4 4 3 4 5 5 7 9 9 8 7 8 11 10 10

GFSNGP_925_spd_090.txt.gz
Wind_Speed
4 2 2 2 5 8 8 10 8 8 12 15 17 8 1 9 11 16 18 19 17 17 16 17 23 22 21 20 20 12 13 15 18 20 20 22 23 26 24 24 27 29 31 33
1 3 4 3 10 6 9 11 11 14 17 6 13 6 6 7 10 13 13 14 15 16 16 16 25 23 21 22 20 23 21 19 18 17 5 9 17 25 27 28 29 30 34 35
2 1 4 4 3 5 7 5 4 6 4 2 12 9 7 14 13 11 12 13 15 15 14 22 29 23 21 17 25 20 22 18 16 14 12 9 6 3 1 4 16 26 30 31
1 3 2 4 7 3 5 5 8 6 4 7 8 11 17 13 15 12 12 12 12 12 17 23 18 13 13 20 23 20 24 23 20 16 14 13 11 10 9 8 7 8 9 13
1 1 5 11 2 3 3 11 6 6 1 13 13 10 11 14 14 13 12 11 15 17 17 18 19 18 16 22 19 20 22 20 19 19 17 15 14 14 14 13 12 11 11 11
0 1 2 5 2 5 3 8 11 11 9 13 11 2 2 9 9 13 15 15 15 15 16 21 22 15 16 17 16 20 18 17 17 18 18 17 14 14 12 13 11 10 11 14
3 4 5 5 10 7 3 4 9 10 10 8 6 7 10 11 13 18 17 19 16 16 18 18 16 13 17 16 19 15 15 17 18 20 19 19 16 15 16 15 15 17 16 18
2 3 7 9 3 3 3 7 10 11 13 15 15 15 14 12 13 13 15 20 21 19 20 22 22 19 17 18 15 13 12 15 18 20 20 19 20 20 20 19 18 19 18 19
4 3 6 7 10 10 10 10 11 13 13 13 9 10 10 11 10 12 17 17 17 17 17 21 22 23 18 17 15 15 15 18 21 23 23 20 23 21 19 20 19 17 17 17
2 8 11 11 11 12 11 11 12 14 12 10 11 10 10 9 8 10 15 15 16 17 17 18 20 21 21 18 15 14 16 18 18 22 24 27 25 26 27 23 20 20 18 18
2 4 5 11 12 8 10 11 13 14 12 11 11 10 9 9 9 11 14 16 16 15 15 17 18 19 19 18 14 13 12 13 15 16 17 23 31 29 28 32 26 21 22 21
2 6 3 5 9 10 11 11 11 9 11 13 11 10 10 10 13 14 17 15 14 14 13 13 15 17 17 14 12 9 12 15 16 16 15 15 14 19 27 29 30 28 25 23
2 2 4 5 7 8 12 12 11 11 11 10 14 14 15 13 15 15 17 14 14 13 13 14 18 21 20 16 14 13 13 12 13 14 14 14 17 17 14 17 25 28 29 28
9 4 3 11 6 9 11 13 15 16 15 13 13 15 15 14 13 15 14 13 14 14 17 19 20 21 18 16 16 16 17 17 18 17 18 19 20 20 20 20 18 23 22 25
8 8 7 7 9 9 10 9 9 10 9 10 12 12 12 13 13 13 12 12 14 19 20 20 20 20 16 14 15 15 16 16 17 18 19 19 20 21 22 22 22 20 21 21
4 5 6 7 7 8 8 8 8 8 8 10 12 12 12 14 14 15 17 17 15 15 18 19 18 16 13 11 12 14 15 14 16 17 18 19 19 20 21 21 22 22 23 21
4 2 7 3 6 8 9 7 8 8 10 10 11 12 13 15 15 15 16 16 17 18 18 18 16 13 12 10 10 12 13 14 15 16 16 16 17 18 18 19 19 21 21 20
7 6 7 7 6 7 7 8 10 10 9 10 12 14 15 13 10 10 10 10 13 17 17 15 12 11 12 10 9 10 11 13 14 15 15 16 17 17 18 19 19 19 19 19
9 8 10 10 11 10 8 8 10 11 12 12 14 14 13 12 10 10 9 12 14 15 16 12 11 11 12 11 9 10 11 13 14 15 15 15 17 17 18 18 18 18 18 18
9 11 11 10 10 10 11 12 13 14 13 14 14 13 12 9 8 9 12 14 12 8 9 10 10 12 12 11 10 11 11 13 14 14 15 16 16 16 16 15 16 16 16 16
7 8 8 10 11 10 10 11 13 12 9 9 10 10 9 8 7 6 9 9 11 9 10 11 12 13 12 10 11 12 13 14 14 15 15 14 14 14 14 13 12 12 12 12
9 10 10 11 12 11 9 9 9 9 9 9 8 8 8 8 9 10 10 8 8 9 10 12 12 12 11 11 11 12 12 12 13 12 13 13 12 11 11 9 9 8 8 8
9 10 10 11 11 11 9 8 7 5 5 3 3 2 2 3 2 2 3 5 6 7 9 10 10 10 10 10 11 11 11 11 11 10 10 10 10 9 8 7 6 6 6 6
9 8 10 10 10 9 8 6 6 5 4 4 4 3 2 2 5 5 5 5 5 5 6 7 8 8 9 10 11 10 8 7 6 6 6 6 7 8 8 8 6 5 5 6
8 9 10 8 4 4 6 6 4 4 3 3 2 1 1 1 2 3 2 4 5 6 6 5 6 7 8 8 8 9 8 6 5 5 4 5 6 6 6 6 7 8 8 7
8 7 5 2 1 4 7 8 9 9 7 6 4 2 2 2 2 1 1 1 2 2 3 3 3 4 5 6 5 5 4 4 4 5 5 5 7 9 8 7 7 9 10 9
8 7 5 3 3 3 3 2 6 11 9 7 4 4 4 2 2 3 3 3 3 4 4 5 6 6 6 8 8 8 7 7 7 7 6 7 9 10 8 7 8 9 10 10

GFSNGP_925_spd_093.txt.gz
Wind_Speed
8 6 3 2 4 3 5 6 5 8 16 18 16 13 14 8 12 14 12 10 17 15 13 21 22 22 22 24 26 12 12 10 9 11 12 12 13 15 15 16 16 15 17 20
3 5 4 1 6 4 7 8 11 14 14 8 9 14 7 10 14 13 14 17 18 16 18 16 21 22 22 25 28 28 23 19 16 16 12 8 5 11 16 19 21 20 20 18
2 2 4 4 2 3 2 3 3 6 6 4 12 16 16 11 14 14 13 14 14 16 17 22 23 21 25 24 26 32 32 18 17 18 15 12 8 7 7 4 3 1 6 15
2 1 1 1 6 2 2 4 8 8 7 4 10 12 15 14 13 13 13 12 13 13 20 22 21 21 21 24 31 33 28 21 23 19 15 13 11 12 11 10 9 7 6 6
2 1 5 2 6 6 6 9 10 9 8 9 13 15 9 11 13 12 11 10 14 16 18 21 25 24 25 26 33 28 23 21 18 16 16 15 15 14 13 13 13 13 13 13
2 2 1 4 9 10 4 8 14 12 11 10 10 3 3 10 10 12 15 15 16 17 18 22 22 20 22 22 25 21 17 18 12 17 19 18 16 15 14 14 15 15 16 17
2 1 5 6 15 10 2 5 10 10 11 9 5 7 11 11 11 13 14 15 15 19 21 21 18 17 19 20 20 16 14 13 16 19 20 17 16 15 14 14 15 17 19 19
2 3 3 13 5 4 2 10 8 9 10 15 12 12 12 11 10 10 13 16 16 18 19 19 19 16 18 19 14 12 14 16 18 19 19 17 17 17 17 16 17 17 17 17
3 3 7 8 8 11 12 9 11 10 10 11 10 10 9 9 9 11 15 15 17 17 16 17 17 18 17 14 10 11 14 17 19 20 20 20 22 20 19 19 18 19 19 18
2 5 7 9 9 11 12 12 12 11 9 9 11 9 10 9 8 8 13 15 13 15 15 17 17 18 16 15 12 13 13 14 16 21 21 22 25 25 24 22 22 20 18 18
1 4 3 12 10 9 11 10 11 12 12 11 10 10 9 9 8 11 12 13 14 15 16 17 17 17 16 15 12 12 12 13 14 15 17 24 30 27 27 31 24 19 20 20
3 5 3 4 8 9 10 11 11 9 11 12 11 9 10 9 12 12 12 13 16 17 17 16 16 17 16 15 12 9 11 12 13 13 13 14 17 23 28 28 29 27 24 19
3 3 8 8 8 8 9 9 10 11 10 10 12 12 13 12 13 12 14 15 16 16 16 16 17 19 20 18 16 15 14 12 12 13 13 13 13 13 12 13 20 25 25 23
8 5 8 9 5 6 8 10 11 12 13 13 13 13 14 12 12 13 14 13 13 14 14 14 16 19 19 17 18 19 17 17 14 14 14 14 13 13 12 13 13 14 17 20
8 9 8 8 8 8 6 7 8 9 9 11 13 12 12 12 13 12 10 10 11 14 16 16 16 17 15 15 16 15 13 14 14 14 14 14 12 13 13 13 12 11 11 15
2 7 7 8 7 7 7 7 7 7 8 9 11 13 12 13 14 14 14 15 16 16 15 18 17 17 14 13 12 12 12 13 12 11 10 11 10 11 12 13 13 13 14 14
2 2 5 6 6 7 8 7 8 8 10 10 11 10 11 11 12 13 13 13 15 14 14 15 16 14 13 12 11 9 9 10 11 11 11 10 10 11 11 11 11 12 12 13
7 6 8 6 5 6 7 9 9 9 9 9 10 11 11 10 9 8 9 9 12 15 16 15 14 12 12 11 10 8 8 8 9 10 9 9 9 9 9 10 10 10 10 12
8 7 8 8 7 8 8 10 9 10 10 10 11 11 9 9 7 7 7 9 11 12 14 13 11 11 11 10 8 8 7 8 9 9 9 9 9 10 10 10 10 10 9 9
9 9 10 11 10 11 12 12 11 12 10 11 12 10 8 8 7 8 9 11 10 7 10 10 10 11 11 10 8 8 8 8 9 8 8 9 9 9 10 10 9 9 8 8
8 10 12 13 15 15 14 12 13 11 9 8 9 8 7 6 4 4 4 6 7 7 7 8 9 8 8 7 8 9 9 9 9 9 8 8 9 9 8 7 7 7 6 6
8 10 12 12 12 11 9 9 10 11 10 10 10 9 7 6 6 7 7 5 4 6 7 8 9 9 8 8 8 8 8 9 8 8 8 8 7 6 5 4 4 4 4 4
7 7 8 8 8 8 7 7 6 5 6 5 4 4 4 4 2 1 2 4 4 6 6 8 8 8 8 8 8 8 8 8 8 8 7 7 6 5 3 3 2 2 1 2
7 6 6 7 6 4 4 3 3 3 4 4 4 3 2 2 4 4 5 4 4 4 5 6 5 6 6 8 8 6 6 5 5 4 4 3 3 3 3 3 2 2 3 4
6 7 7 6 3 3 4 5 4 4 4 3 3 2 2 1 2 4 3 3 4 4 4 4 4 5 5 6 6 6 5 4 3 2 1 1 2 2 2 2 2 3 5 5
6 4 4 4 3 3 5 6 7 6 6 5 4 2 2 3 3 2 1 1 1 2 2 2 2 3 3 4 5 4 3 3 3 3 3 3 4 5 6 5 5 5 6 7
4 5 4 2 2 3 3 3 2 4 6 5 4 5 4 2 2 1 2 2 3 3 4 4 4 4 4 6 7 6 5 5 6 7 7 7 7 9 9 9 9 9 10 10

GFSNGP_925_spd_096.txt.gz
Wind_Speed
14 12 10 9 6 4 4 3 4 6 12 13 15 17 9 11 12 16 18 19 18 16 15 19 21 21 20 29 28 16 17 13 6 11 12 12 13 14 15 15 16 14 15 15
10 8 6 4 2 2 3 3 5 6 6 11 9 13 15 14 13 15 14 15 13 13 17 17 22 21 22 29 26 23 27 24 20 17 15 12 8 8 9 9 10 13 14 14
4 3 2 5 7 3 4 5 6 7 11 9 8 13 11 10 11 11 11 10 11 9 12 17 21 23 27 27 26 24 23 22 22 23 19 17 13 13 11 11 10 9 6 6
2 2 3 6 5 8 5 8 11 11 12 10 11 12 12 11 11 11 12 12 12 11 11 22 27 26 22 21 25 22 22 23 20 25 22 19 18 19 16 12 12 12 13 11
1 2 6 7 9 8 6 6 14 14 15 13 13 13 12 12 12 11 10 9 12 14 17 18 23 13 19 25 22 21 24 23 23 26 24 16 19 21 16 16 15 16 17 16
1 2 2 6 11 10 8 3 13 14 16 8 9 2 4 10 10 11 14 13 15 15 17 21 24 22 23 25 26 25 21 23 22 21 23 21 18 19 14 16 17 16 18 19
3 3 5 11 16 16 4 6 10 11 12 12 5 5 8 8 10 10 13 15 15 17 19 21 19 18 21 20 22 19 19 23 25 23 24 17 13 13 12 15 16 16 17 17
1 1 2 17 7 6 6 10 9 10 9 11 10 9 9 8 9 10 12 15 15 15 17 17 17 16 17 18 14 14 19 19 20 19 19 14 14 13 15 15 16 16 15 15
5 3 4 8 8 7 9 8 8 8 8 8 8 9 8 8 9 10 13 14 14 14 14 16 17 16 16 14 12 13 17 19 20 18 19 19 17 17 17 17 17 16 16 15
3 5 7 9 9 9 10 10 10 9 8 7 9 7 8 7 8 10 15 15 13 14 15 16 15 15 14 12 11 12 14 15 18 20 21 21 23 20 19 18 17 15 14 15
5 7 5 11 11 9 9 8 8 9 9 8 7 8 7 8 8 11 12 13 13 13 14 16 15 16 15 12 10 12 12 13 14 17 20 24 27 23 23 28 19 15 16 14
3 3 5 5 7 8 9 9 8 7 8 9 8 8 8 7 9 10 11 12 13 14 15 15 15 16 16 15 11 9 11 11 11 12 10 12 15 20 24 25 26 24 22 15
3 5 9 8 6 6 7 7 7 7 7 6 8 9 9 9 11 11 12 13 13 13 14 14 15 16 16 15 14 13 12 10 10 10 9 10 11 10 10 14 22 23 23 21
5 7 5 1 3 4 6 7 8 9 9 9 9 10 9 9 10 12 12 12 12 12 14 14 14 16 15 13 13 13 13 12 11 11 11 11 12 10 9 9 10 12 17 18
5 5 7 6 5 4 3 3 5 6 7 9 9 9 8 9 10 10 9 9 10 12 14 14 14 15 14 13 14 14 12 12 11 12 12 11 10 10 10 10 9 9 8 11
4 4 4 4 5 5 4 5 5 6 7 8 9 10 10 10 10 11 12 12 11 12 13 13 13 13 12 11 10 9 10 11 9 9 9 9 9 9 9 9 9 10 11 12
5 2 2 2 3 5 5 6 7 8 8 9 9 9 9 9 9 9 9 9 9 10 9 11 11 11 10 10 7 6 6 7 8 8 8 8 8 8 8 8 9 10 11 12
7 5 4 3 3 4 5 6 7 7 7 7 7 8 8 8 6 5 5 5 5 9 11 10 11 10 10 9 7 5 5 6 7 7 7 8 8 8 8 9 9 9 9 11
5 5 6 6 5 6 6 7 8 8 7 6 8 8 7 7 5 4 4 5 5 6 11 10 9 9 9 9 7 6 6 6 6 7 7 7 8 8 8 8 9 9 9 9
8 8 8 9 9 9 10 8 8 8 7 7 7 6 6 6 4 4 5 8 8 6 7 8 7 8 8 9 9 7 6 6 7 7 7 7 7 7 8 9 8 8 8 8
9 9 10 10 10 8 8 7 8 8 6 6 6 6 6 5 4 4 3 4 7 7 7 9 10 8 8 7 7 7 6 6 7 6 6 6 6 6 6 6 6 5 5 5
9 9 9 9 9 8 6 7 7 7 6 7 7 5 4 3 3 4 4 5 5 6 6 7 7 8 7 8 7 7 6 6 6 5 5 5 5 4 4 3 2 2 2 2
9 10 10 9 9 9 7 6 5 5 5 4 3 2 3 4 5 4 3 3 4 4 4 5 6 7 7 6 5 5 5 5 4 4 4 4 3 3 2 2 1 1 1 2
8 7 7 6 5 4 3 3 3 3 3 3 2 2 3 4 4 3 2 2 3 3 3 2 4 6 6 5 5 4 3 3 3 2 2 2 2 2 2 2 2 3 3 4
5 5 4 3 1 1 1 1 1 2 2 2 1 0 1 2 3 1 1 0 1 2 2 2 3 4 4 4 4 4 3 3 2 2 2 2 2 3 3 4 4 4 4 5
5 3 2 1 3 4 3 4 6 6 6 6 5 4 2 1 1 1 2 2 3 3 3 3 3 3 4 4 4 5 5 5 4 4 4 5 5 5 5 6 6 6 6 6
3 2 2 2 2 1 3 4 7 7 6 7 6 5 4 3 3 3 3 3 4 4 4 4 5 5 4 5 5 5 5 6 7 6 7 7 7 7 8 8 8 9 9 10

GFSNGP_925_spd_102.txt.gz
Wind_Speed
8 13 10 7 12 5 10 8 3 9 12 14 13 12 13 11 11 13 14 15 15 15 14 19 24 29 31 32 34 31 25 25 21 7 16 13 14 17 19 20 18 21 23 21
5 19 16 18 8 10 6 14 14 19 14 16 14 12 13 13 12 12 12 13 15 15 14 20 22 26 29 30 30 30 30 29 29 24 19 12 6 1 18 16 16 18 23 25
9 14 9 13 15 16 20 21 19 14 9 12 12 13 13 11 11 10 11 12 11 13 15 19 21 22 25 28 28 29 31 32 32 30 29 25 16 14 17 17 16 20 21 19
3 4 5 7 19 16 21 20 20 17 16 13 13 10 11 10 8 10 13 13 9 12 19 23 23 27 25 28 29 28 30 31 31 32 31 30 28 25 22 20 21 20 19 17
3 4 12 9 16 14 7 14 20 16 13 7 11 9 10 10 10 8 6 10 14 15 16 19 23 24 26 26 25 27 28 28 28 28 32 32 31 28 24 26 26 27 25 23
2 4 0 7 20 19 14 6 16 14 14 8 2 1 4 9 9 10 16 14 15 16 17 20 20 22 22 23 25 26 27 28 28 29 30 32 29 26 23 28 28 28 31 28
5 4 5 15 21 16 4 5 11 12 13 15 7 5 5 8 9 11 13 15 16 17 19 19 19 19 21 19 23 22 23 24 27 27 30 27 28 23 16 25 28 27 30 30
6 6 4 22 7 7 3 5 8 10 10 10 9 8 7 7 7 10 12 17 17 18 20 20 21 19 19 21 17 20 23 24 24 29 29 24 25 23 17 20 25 19 26 20
5 3 3 9 9 7 6 6 5 7 8 8 7 6 5 4 4 6 14 14 16 17 18 21 22 21 21 17 16 16 20 25 26 28 27 28 27 22 16 20 24 16 18 18
5 6 7 8 8 8 7 5 6 8 8 6 6 4 3 2 5 10 15 16 16 17 19 20 20 20 22 20 14 17 19 20 24 28 29 28 25 26 28 23 18 16 18 18
5 8 9 8 7 7 7 7 7 8 9 9 8 9 9 9 10 13 14 15 17 17 18 19 19 19 20 22 18 16 17 16 16 18 23 24 30 27 25 29 21 19 22 20
2 3 3 4 4 6 6 7 8 9 8 11 12 10 12 10 13 14 15 15 16 17 16 16 18 19 20 19 18 17 15 16 17 16 13 17 20 24 25 25 25 25 22 22
3 5 7 5 3 1 7 8 9 10 12 10 15 14 14 13 14 14 14 15 15 15 15 16 16 18 21 19 17 18 18 17 16 16 15 14 10 13 15 20 22 22 23 22
4 6 5 4 4 5 5 5 6 11 12 13 12 12 12 12 12 12 12 10 12 13 14 14 13 17 18 16 16 16 15 15 14 14 14 14 14 14 13 12 12 14 17 18
4 5 6 4 4 6 6 7 5 9 10 12 13 13 12 12 12 13 13 14 12 13 13 14 15 17 15 17 10 15 12 13 11 12 13 12 12 12 13 14 15 14 12 13
3 4 6 6 6 8 9 9 9 9 10 11 11 11 10 11 11 10 11 12 12 12 13 14 14 15 12 13 12 9 11 11 11 11 10 10 11 11 11 13 14 13 11 11
3 3 2 3 5 7 8 9 9 8 9 10 10 10 10 5 10 8 8 7 9 10 11 13 13 14 14 9 11 7 7 8 9 10 11 10 10 10 9 10 12 12 11 13
8 8 9 8 5 6 7 9 10 11 10 8 7 8 9 10 9 9 9 7 4 10 12 11 12 11 14 10 10 8 8 7 8 8 9 9 9 9 9 9 10 10 9 11
10 10 10 10 9 10 11 11 10 8 7 6 7 8 7 7 7 7 8 9 10 9 13 12 12 10 11 11 12 9 8 8 8 9 7 7 9 9 10 8 9 9 9 9
11 12 12 13 13 11 10 8 8 7 6 5 4 6 5 7 7 7 7 4 5 6 9 11 12 11 11 10 12 9 9 9 8 7 8 9 8 7 8 7 7 8 8 7
10 11 10 10 11 10 9 7 6 6 5 5 6 5 5 5 6 7 9 1 3 8 9 5 9 10 10 9 11 8 8 7 6 6 7 6 4 6 6 6 6 6 7 7
9 9 8 7 7 7 6 6 4 4 4 4 4 4 6 10 9 6 3 4 5 9 6 5 7 10 7 10 8 7 7 7 7 7 7 7 7 6 5 5 5 5 4 4
8 7 7 5 3 5 3 2 1 0 1 3 3 5 7 9 6 6 3 3 6 8 7 5 11 7 4 8 7 6 5 4 5 5 4 5 5 5 6 4 5 4 4 4
7 6 4 2 3 5 7 7 6 8 6 8 9 5 3 6 9 4 2 1 2 8 6 4 9 6 3 6 4 5 5 5 3 3 3 2 2 2 3 2 2 4 3 3
5 5 5 6 8 7 3 5 6 9 10 10 8 11 7 3 2 5 6 7 5 6 5 6 6 5 5 5 4 4 5 5 4 7 4 4 3 2 3 3 3 3 6 5
6 5 5 1 4 5 6 7 9 10 11 10 8 8 6 3 3 4 5 5 5 7 6 5 5 5 8 7 3 6 5 6 6 4 3 6 6 5 4 4 4 4 5 4
4 3 4 5 4 2 3 5 7 8 10 10 10 12 8 3 4 5 7 7 8 7 8 8 7 6 5 9 9 8 7 7 7 5 7 10 8 6 5 5 4 5 6 6

GFSNGP_925_spd_105.txt.gz
Wind_Speed
7 11 15 9 13 8 7 9 2 10 16 12 12 11 13 15 15 14 14 15 15 15 14 23 27 30 27 29 32 32 32 32 27 19 10 15 14 19 21 21 20 21 22 21
15 14 12 13 18 23 20 13 15 16 12 13 13 12 15 14 13 14 14 15 15 16 18 20 24 26 29 27 30 33 31 32 30 25 21 18 17 20 17 17 15 18 19 17
3 6 10 13 18 21 21 21 14 11 6 10 12 13 14 13 14 13 12 11 11 11 15 20 22 24 26 30 27 33 35 33 30 26 26 25 24 24 24 21 18 19 17 14
1 5 5 8 14 19 23 22 19 13 10 11 12 11 13 12 10 9 10 10 6 12 16 19 22 26 25 28 30 28 35 36 34 26 26 29 30 28 30 29 26 26 22 21
2 3 7 12 13 10 5 13 18 14 8 11 10 8 12 12 11 10 11 10 15 18 20 17 20 20 22 26 26 32 31 30 33 31 26 27 29 26 30 34 32 33 28 25
1 3 5 6 20 15 5 8 14 14 12 8 2 5 3 9 8 10 16 16 18 19 15 16 17 20 21 23 25 27 25 27 30 27 29 28 31 23 32 35 35 35 34 31
6 4 2 14 20 13 3 3 6 10 12 14 7 5 3 6 7 11 13 15 16 15 17 19 19 20 20 20 24 24 22 24 27 23 29 26 30 24 28 28 31 33 34 35
4 4 3 20 7 6 2 5 8 9 9 10 8 6 4 3 3 7 11 15 16 17 19 21 23 19 19 21 18 22 23 24 25 26 26 26 26 26 25 25 27 26 27 26
5 4 4 9 10 8 6 4 3 4 7 8 6 3 2 2 5 9 16 17 19 18 18 21 24 24 21 16 16 20 25 24 25 26 27 27 27 26 23 27 21 21 21 21
2 5 8 9 9 8 6 6 4 6 5 5 5 2 1 4 8 13 17 17 18 18 18 20 22 25 25 25 15 15 16 21 22 24 26 26 27 28 23 23 20 19 19 20
4 8 8 8 8 7 7 7 6 9 11 9 8 10 10 11 12 15 16 17 17 16 17 18 19 23 25 24 19 17 19 13 18 22 21 23 28 25 26 27 22 21 22 24
2 4 4 3 3 3 6 7 9 10 13 18 15 12 15 12 15 15 15 16 16 17 17 17 18 23 24 21 20 19 18 18 18 12 16 18 20 24 26 26 25 24 23 24
3 5 7 5 3 4 7 6 12 12 13 11 15 14 14 13 13 14 14 15 16 16 15 16 17 21 22 20 18 19 17 16 15 16 16 11 15 17 17 21 22 22 22 21
6 7 5 5 4 6 6 9 18 18 19 16 14 15 14 12 14 15 17 13 14 15 16 16 15 17 20 17 16 15 15 15 15 15 15 15 15 11 13 14 15 18 18 18
5 5 6 8 13 13 18 17 13 11 14 14 15 13 12 11 12 13 12 12 12 14 16 16 19 18 16 17 12 15 15 14 12 13 13 12 12 14 14 14 13 12 14 15
5 8 8 9 11 11 9 9 9 8 11 11 11 10 9 10 11 11 12 13 14 13 14 15 17 18 14 14 13 10 11 10 11 11 12 11 12 12 12 13 12 13 16 14
3 5 5 8 8 8 7 9 11 11 12 13 10 10 11 11 11 10 9 8 9 11 12 12 15 15 15 12 14 12 8 7 7 7 9 10 10 11 11 13 15 14 17 15
14 12 13 8 8 8 9 13 13 12 11 9 9 9 10 10 8 6 7 8 4 10 12 9 12 12 13 14 14 11 8 8 9 9 8 10 12 12 13 12 12 13 12 12
17 16 17 17 16 15 12 12 12 10 9 7 6 7 6 4 3 3 5 6 8 6 9 12 11 11 13 12 14 11 8 8 6 7 8 7 7 10 11 11 12 11 9 8
15 15 15 15 14 14 14 12 11 9 6 4 5 4 2 4 5 4 3 0 6 7 8 7 10 10 10 10 10 10 9 9 7 8 7 8 6 9 10 10 10 9 9 9
13 14 13 13 13 11 10 8 6 5 4 3 3 2 3 6 6 7 11 6 5 10 9 4 9 15 8 10 12 8 8 8 10 9 8 8 8 8 8 8 8 8 8 8
12 11 10 10 10 9 7 5 5 4 2 2 3 3 7 9 10 6 2 5 3 9 8 8 13 13 6 7 10 7 7 7 7 6 6 7 7 8 8 8 8 6 6 7
11 10 8 7 7 8 4 1 1 2 3 3 3 3 4 5 6 4 3 3 6 8 8 8 11 12 5 6 7 7 7 6 5 6 5 4 3 4 3 4 4 3 2 1
11 9 6 3 4 4 6 7 6 7 9 8 9 9 7 4 2 1 1 3 5 6 7 9 7 9 4 7 5 6 6 8 4 3 3 4 1 1 1 2 1 1 1 0
10 7 5 5 7 11 10 8 9 10 12 12 12 15 13 8 9 6 6 7 6 7 8 7 5 2 5 7 6 5 6 7 7 8 4 2 2 3 3 3 2 2 4 3
7 8 10 8 5 3 4 7 7 9 9 9 9 12 5 10 8 5 4 5 7 8 8 8 7 7 6 3 5 6 5 6 7 6 3 5 6 6 5 5 5 3 3 3
6 4 4 6 3 3 4 5 4 4 8 9 7 10 13 6 6 5 6 8 7 8 8 8 8 8 7 8 9 7 7 6 7 6 5 7 8 7 6 5 5 6 7 9

GFSNGP_925_spd_108.txt.gz
Wind_Speed
3 8 7 17 8 9 5 7 8 10 13 12 12 14 13 13 14 16 17 17 15 14 15 24 25 26 28 31 31 30 29 32 32 29 24 14 6 23 26 25 24 25 21 19
15 16 21 21 21 22 16 14 13 13 11 10 11 12 13 12 13 14 14 13 14 14 17 19 23 26 27 29 30 28 27 30 30 33 31 26 21 9 25 24 22 24 20 17
2 6 9 14 15 19 20 21 8 9 7 9 12 13 12 11 12 14 13 11 11 12 16 19 23 26 26 26 28 34 31 30 30 33 34 32 29 27 23 21 21 22 20 15
2 5 6 3 10 16 22 18 16 12 10 12 13 10 11 11 11 12 11 10 9 11 16 22 23 26 24 27 27 28 30 32 31 31 34 32 34 30 32 26 24 22 21 18
2 4 7 5 9 6 6 13 15 12 9 9 9 8 10 11 9 9 7 9 13 16 19 19 24 22 26 27 27 28 30 31 34 31 32 33 28 32 32 29 34 27 25 22
1 4 4 4 18 11 6 7 10 10 9 7 7 4 3 8 7 9 12 15 17 20 20 23 22 22 20 25 24 25 27 28 27 30 30 27 27 28 32 29 30 33 27 30
5 4 3 14 18 7 2 2 8 8 8 11 6 4 1 4 6 11 16 16 17 19 19 21 24 22 23 24 26 24 23 23 26 25 25 26 25 25 24 25 29 30 25 33
3 4 3 18 5 5 4 4 5 6 8 9 7 5 2 5 7 14 16 17 17 18 20 22 26 24 22 21 23 24 23 23 23 23 25 23 22 22 25 24 21 20 26 28
5 3 3 5 8 8 5 5 5 6 6 7 5 5 6 7 8 14 16 16 17 18 19 23 26 27 23 21 17 22 23 23 24 25 25 25 25 23 25 24 21 21 21 19
3 4 7 7 7 8 5 3 5 8 4 5 6 8 8 9 9 14 16 16 16 17 19 20 24 24 24 21 16 16 18 23 23 23 25 26 24 24 22 21 18 18 19 19
4 6 7 7 6 5 7 8 13 14 14 11 12 11 10 9 12 13 14 15 17 16 16 17 17 21 21 21 17 17 18 14 19 21 20 21 27 26 23 27 23 21 20 20
2 5 3 4 2 3 7 8 9 10 12 15 13 10 13 11 13 14 13 14 15 15 14 16 18 19 20 19 18 16 13 16 16 13 18 18 17 20 23 23 22 25 23 22
3 2 4 4 4 1 6 10 14 14 13 9 13 13 14 12 13 12 13 13 13 12 13 12 15 19 19 16 15 15 16 14 15 14 11 12 14 16 16 16 18 21 21 19
5 7 5 3 6 7 16 18 19 17 16 14 13 13 12 12 12 12 13 11 12 13 14 16 15 19 18 13 14 14 11 12 13 12 11 10 8 10 11 13 15 16 17 18
4 8 12 11 14 14 15 15 11 9 11 12 11 10 10 11 11 11 10 8 9 12 14 16 17 18 17 16 10 12 12 11 10 10 9 8 8 9 9 9 11 11 10 12
9 11 10 11 8 8 8 9 9 8 9 8 8 8 9 8 9 9 11 12 13 14 13 16 16 17 16 15 11 7 8 8 8 7 7 6 6 7 9 10 12 13 13 11
6 7 6 6 7 7 8 9 10 8 8 9 8 7 8 6 6 8 9 7 7 12 11 14 15 15 13 14 11 10 6 5 7 6 6 8 6 7 10 11 13 15 13 11
12 9 9 9 9 9 9 10 9 7 8 6 6 5 5 6 6 7 9 8 2 10 10 12 13 14 13 13 11 11 6 6 5 6 6 6 7 7 8 11 9 11 10 10
13 13 14 14 13 12 10 9 9 8 7 5 5 6 4 4 4 4 5 5 7 8 10 11 13 13 13 11 10 9 7 6 5 5 4 5 6 9 9 10 9 7 7 8
12 12 12 12 10 12 13 11 9 7 5 2 1 0 2 3 4 4 5 3 4 7 9 6 9 14 12 8 8 8 6 5 5 6 4 4 7 7 7 7 7 7 6 6
12 13 14 15 14 12 10 7 5 4 4 3 4 3 1 4 5 3 2 6 2 5 7 9 11 13 8 6 6 6 6 6 6 5 6 5 6 7 6 6 6 6 6 5
13 14 13 12 12 10 7 5 5 6 6 6 5 5 5 4 6 1 3 4 3 6 8 9 9 12 7 6 6 6 6 5 5 4 4 3 3 5 7 6 5 4 4 4
13 12 10 10 10 8 6 5 4 5 6 6 7 7 7 6 7 6 6 6 6 8 9 9 8 11 5 6 5 7 5 5 4 3 3 2 2 0 0 1 2 2 2 2
12 11 10 8 7 8 9 7 8 7 10 11 12 12 13 11 9 7 5 6 7 7 8 8 5 7 5 5 5 6 7 5 3 5 5 5 3 1 2 2 2 1 2 2
12 10 8 8 8 10 11 10 4 3 3 5 3 7 8 13 15 10 7 9 8 8 7 7 7 7 7 8 6 7 7 7 6 6 5 2 3 3 4 5 5 4 3 4
11 10 9 8 8 7 4 6 6 4 1 2 4 5 7 9 12 13 10 9 10 9 9 9 10 11 10 9 9 8 10 9 7 7 7 6 7 8 7 8 7 7 6 7
9 8 8 10 11 7 6 2 1 3 5 6 6 8 10 9 6 7 9 11 12 12 12 12 12 11 11 10 11 12 10 9 9 9 9 8 9 10 7 7 7 7 7 8

GFSNGP_925_spd_111.txt.gz
Wind_Speed
11 14 15 20 17 5 10 11 7 9 11 9 10 12 11 13 15 16 15 16 15 16 15 22 24 27 29 30 30 30 30 32 30 27 26 25 24 18 11 14 28 31 26 24
4 16 20 18 22 22 17 11 10 12 9 8 9 9 13 13 12 13 15 14 13 14 17 20 24 25 26 27 29 28 30 31 31 28 28 31 29 27 23 19 11 12 20 19
2 7 5 11 16 17 14 20 7 7 5 6 10 13 13 13 14 15 14 14 14 14 18 22 23 25 25 26 28 31 31 32 33 31 30 30 32 35 31 33 26 22 16 10
2 1 5 2 11 8 18 16 14 11 9 9 11 10 12 11 12 13 10 11 11 15 18 22 23 25 23 25 28 29 31 31 31 31 31 30 32 34 34 33 30 34 28 22
2 5 5 3 7 6 6 9 14 5 5 4 4 3 9 12 12 10 9 12 15 18 19 22 25 23 24 25 25 27 29 30 31 29 28 31 30 29 28 34 35 28 28 26
3 3 2 4 15 9 4 4 10 9 9 6 6 3 3 10 8 8 13 14 15 17 19 22 22 20 24 25 25 27 27 27 29 29 30 29 29 28 28 28 28 28 34 33
4 3 4 11 11 4 2 2 5 8 8 9 5 4 3 8 10 14 14 16 16 18 18 20 24 22 23 26 28 28 27 27 27 27 27 26 25 26 27 29 33 31 31 34
2 3 2 14 4 3 4 4 6 7 8 10 9 8 8 7 6 11 12 15 16 16 18 21 22 20 21 23 23 26 26 27 27 27 28 27 25 25 25 24 27 28 24 26
4 3 3 5 9 8 6 6 4 7 7 8 9 8 4 4 6 11 14 15 17 16 16 21 24 24 21 22 20 21 26 27 26 29 29 29 29 28 26 27 25 22 20 19
2 4 7 7 7 6 5 8 9 5 6 8 9 7 5 6 7 10 13 15 15 15 16 18 23 23 20 21 19 19 17 25 26 25 24 26 26 25 25 24 22 19 19 19
4 6 6 6 4 5 10 11 12 13 12 9 9 8 7 6 8 10 11 13 14 14 15 17 21 22 23 21 21 18 19 17 20 22 21 21 25 24 23 27 23 19 21 21
1 4 3 3 1 5 7 7 8 9 9 11 10 7 9 9 9 10 11 12 14 14 14 17 20 22 23 22 20 20 16 17 16 14 17 15 15 16 19 20 22 23 21 20
2 4 5 5 2 7 8 8 11 11 10 8 11 10 10 9 9 9 11 12 13 13 14 16 19 21 21 19 19 18 17 17 17 15 11 14 15 16 16 13 14 20 21 20
7 6 6 5 3 12 14 13 15 14 13 10 10 10 9 9 9 11 12 11 13 14 17 19 19 21 21 18 16 16 15 15 14 12 10 8 8 10 11 12 14 15 15 15
5 8 8 10 11 11 11 10 8 7 8 9 8 9 9 10 12 12 12 10 11 12 18 18 19 20 20 18 14 13 13 13 12 10 9 8 7 9 10 8 9 11 12 14
9 12 10 10 8 6 6 5 7 5 7 6 7 8 8 9 9 9 9 10 14 15 16 17 18 19 18 16 13 11 10 10 11 10 7 6 6 8 9 10 11 12 15 15
8 5 5 5 7 6 6 7 7 6 7 7 6 6 6 6 8 9 10 6 7 12 13 15 17 17 17 14 12 10 8 7 9 9 6 6 4 5 7 8 10 12 13 13
7 5 6 8 8 8 7 9 8 8 7 6 5 5 6 8 7 8 9 9 9 8 11 13 15 19 17 13 11 10 8 8 8 5 5 5 3 2 3 5 7 8 9 10
11 11 12 12 11 11 9 9 8 8 6 5 5 7 6 5 5 5 6 6 7 9 14 14 14 17 17 13 11 9 8 7 6 5 5 4 2 1 3 1 3 4 5 6
11 12 12 11 9 10 12 10 9 7 4 3 3 2 2 4 5 4 8 7 5 9 12 12 16 17 16 11 9 9 9 8 6 5 5 2 2 1 2 3 2 2 3 4
10 12 12 13 13 11 9 7 4 2 1 0 3 3 4 6 7 6 6 6 7 8 10 12 14 15 14 10 8 8 7 6 5 5 6 4 3 3 2 2 3 3 2 1
12 13 13 12 10 8 5 2 0 1 2 3 4 6 8 8 7 9 7 8 8 8 10 11 12 12 11 9 7 7 7 6 5 4 4 5 5 3 2 3 3 2 3 3
13 12 10 8 6 3 2 0 2 4 5 6 8 9 10 12 11 11 11 6 8 9 9 10 10 9 7 7 6 7 7 7 6 4 5 5 5 4 4 4 3 3 3 4
12 10 7 5 3 4 6 5 6 7 9 11 12 11 13 16 17 16 13 9 8 10 11 10 9 8 8 9 10 9 8 8 7 7 8 8 8 7 4 5 5 5 5 5
10 8 7 6 6 8 9 10 8 7 6 8 7 7 11 10 13 16 13 12 10 11 12 12 13 12 12 12 13 11 9 11 10 9 8 7 6 7 8 9 8 8 7 7
9 9 9 8 8 7 7 6 8 6 6 7 9 10 10 11 14 14 15 13 11 14 16 16 15 15 16 16 16 17 15 12 12 11 11 9 10 10 10 11 13 12 10 8
9 7 6 6 7 10 8 5 3 6 7 9 11 10 10 11 11 10 9 11 15 17 18 19 20 19 19 18 17 16 15 16 15 13 13 12 12 13 13 11 9 10 10 10

GFSNGP_925_spd_114.txt.gz
Wind_Speed
7 9 11 21 16 14 15 9 6 6 9 9 10 11 11 12 15 17 19 20 18 17 16 25 29 27 27 30 31 29 29 29 29 28 28 29 30 27 22 16 12 8 10 21
3 3 5 17 21 18 13 12 11 11 8 7 7 8 13 14 16 17 18 17 18 16 19 21 25 23 26 29 30 28 29 30 30 31 32 33 33 31 29 26 22 18 14 8
1 6 9 4 10 14 11 18 5 5 4 5 9 14 15 13 16 17 16 15 14 14 18 22 25 26 26 26 26 28 28 29 31 30 30 32 32 32 33 31 28 27 25 22
2 1 4 2 7 6 17 14 11 10 7 9 11 11 12 13 13 15 15 14 12 17 21 25 26 29 26 25 26 26 27 28 30 31 31 31 31 31 31 31 31 31 31 28
1 2 3 2 7 6 6 8 12 6 2 5 7 5 13 12 11 10 9 12 14 17 19 21 23 23 23 27 27 25 27 27 27 26 28 32 32 31 29 30 33 32 30 33
1 1 2 4 11 7 6 4 10 9 8 8 0 4 3 9 8 11 15 16 16 18 20 21 23 22 23 26 26 27 27 28 28 27 28 27 29 29 28 29 29 29 37 39
4 3 3 8 10 5 2 1 7 8 8 11 6 5 5 6 10 14 15 17 17 19 20 21 22 19 22 23 27 27 28 28 29 30 28 28 27 28 28 28 27 29 29 30
2 3 1 12 3 3 5 5 6 7 8 9 9 7 6 6 7 13 14 16 17 16 17 21 24 21 21 25 22 27 25 27 27 28 30 31 31 31 30 27 25 25 25 27
5 2 4 6 10 9 5 5 3 5 7 8 6 4 5 5 6 11 14 16 18 19 18 23 24 24 22 23 23 19 25 25 26 26 27 26 26 26 26 28 23 23 23 23
1 3 5 6 7 7 6 5 4 6 7 7 7 5 5 5 8 11 16 15 15 15 16 18 22 22 19 19 22 19 19 23 25 25 25 25 24 25 26 25 21 20 19 20
3 5 6 6 5 6 7 9 10 11 9 7 7 6 6 7 9 10 11 13 14 14 14 18 22 24 24 23 20 19 18 18 19 23 22 21 23 24 24 28 26 20 22 22
1 5 2 4 3 5 6 6 6 7 7 10 9 6 7 8 9 11 11 12 13 14 14 17 21 24 24 23 21 16 16 16 19 17 19 19 20 19 17 18 22 23 22 22
3 4 7 8 6 7 8 7 10 11 9 6 10 9 9 8 8 7 10 12 13 13 15 18 20 23 23 21 20 20 19 18 20 18 16 17 18 19 19 16 17 19 19 20
9 9 5 2 4 9 13 12 13 13 11 9 9 8 8 8 8 10 12 11 11 14 17 18 20 23 23 19 17 16 16 17 17 16 14 14 15 16 15 15 17 19 19 18
4 7 7 12 11 8 11 10 7 6 7 8 9 8 8 9 9 9 9 10 10 13 16 18 20 22 21 19 17 15 14 15 15 14 11 11 12 13 14 13 15 16 18 18
7 9 9 9 7 6 6 5 6 5 6 6 7 7 7 7 6 7 7 8 13 13 13 16 18 20 19 17 16 14 12 13 14 13 11 9 9 11 12 12 14 16 18 19
9 5 6 6 6 5 5 6 7 6 7 7 7 5 4 5 5 7 9 6 7 7 12 14 16 19 20 17 15 14 12 12 12 10 10 9 6 7 8 9 11 12 14 14
6 6 5 8 8 8 7 8 8 8 6 5 4 3 6 6 4 5 6 7 5 7 12 13 16 19 19 17 15 14 13 12 11 10 10 9 7 4 4 6 7 8 9 10
11 12 13 12 11 12 10 10 9 8 7 5 4 5 5 4 4 6 8 9 6 10 13 14 17 19 20 17 15 13 13 12 12 10 9 8 7 4 2 2 4 4 5 6
11 13 14 14 11 12 12 11 9 7 5 3 3 2 2 4 7 7 9 11 9 9 12 14 17 18 18 17 13 12 12 12 11 11 10 9 9 6 2 2 2 2 2 2
11 12 12 14 14 12 11 9 5 3 2 2 2 3 5 7 7 9 10 10 8 9 11 13 15 16 17 15 12 11 11 11 11 10 10 10 10 9 5 4 3 2 3 3
13 14 15 14 13 11 8 5 3 2 1 1 3 5 8 10 9 11 12 12 11 9 10 12 13 13 13 13 11 12 12 11 11 10 9 9 10 9 8 6 5 4 4 4
14 15 14 12 11 8 6 4 2 0 2 4 7 9 11 13 14 15 18 13 9 8 10 11 12 11 11 11 12 13 13 12 11 11 10 11 11 10 8 7 6 6 6 6
15 12 11 9 6 3 1 1 3 5 7 8 9 9 9 13 16 14 16 16 16 11 11 12 13 13 13 14 14 15 14 14 13 13 13 13 12 11 10 7 9 8 8 8
13 12 9 7 4 2 2 5 6 6 5 6 8 8 11 10 11 17 18 15 13 14 13 14 15 16 17 18 18 18 18 17 16 15 15 14 13 12 11 11 11 12 11 10
12 10 8 5 3 3 4 5 5 3 5 10 10 11 10 10 13 16 15 15 12 11 16 18 19 20 20 22 22 21 20 19 19 18 16 15 14 13 14 14 14 13 15 13
8 6 4 3 5 5 6 3 1 5 7 9 12 12 11 14 15 15 15 14 14 16 17 17 17 16 17 18 20 21 22 22 21 20 19 18 16 15 14 15 13 12 11 9

GFSNGP_925_spd_117.txt.gz
Wind_Speed
6 9 12 15 17 17 11 4 4 6 6 9 11 11 11 11 12 16 19 20 18 19 17 24 27 27 26 33 26 27 31 30 30 29 28 30 31 29 25 26 25 20 13 12
3 6 0 8 16 13 10 13 12 11 8 7 8 9 11 13 15 16 16 16 18 18 24 27 28 27 29 29 29 25 29 30 28 30 32 31 32 30 31 30 29 29 28 25
2 3 4 2 8 9 11 14 5 6 5 6 9 11 12 12 14 14 15 16 17 17 22 24 29 28 27 26 29 31 29 28 30 30 30 30 30 32 33 31 32 32 32 30
3 3 2 4 3 10 15 11 8 8 7 8 12 13 12 13 13 13 13 13 14 18 21 24 24 29 27 27 27 28 28 28 28 28 26 26 28 29 30 30 29 32 35 33
3 2 4 4 3 2 4 6 9 4 4 9 8 5 12 12 12 12 12 15 17 19 20 22 24 22 24 28 27 27 28 29 28 26 25 25 26 26 26 27 30 31 31 33
2 3 4 3 5 4 4 3 8 7 4 7 6 3 4 10 11 12 13 14 15 15 18 21 23 23 24 26 29 29 27 26 27 28 30 29 28 26 25 24 24 24 29 31
3 1 3 7 8 3 3 3 4 6 8 8 6 5 5 7 11 12 12 16 15 17 19 20 21 21 25 26 26 26 25 23 27 27 26 27 26 28 26 24 24 26 26 29
1 0 2 12 1 1 6 6 6 5 7 11 10 9 8 8 9 13 15 16 17 17 20 22 24 23 23 26 22 21 24 24 24 23 24 25 24 24 24 23 22 23 24 24
3 3 4 5 9 7 4 8 6 7 7 9 8 7 6 6 8 11 13 12 13 16 17 20 20 19 18 19 18 18 18 21 21 20 22 22 25 26 24 23 22 20 20 20
4 4 7 6 9 9 9 8 8 9 9 8 9 7 6 6 8 10 11 13 13 14 17 18 19 19 18 17 17 17 18 18 18 19 19 20 20 20 22 23 21 21 21 21
3 6 7 7 8 8 9 10 11 11 10 8 8 8 7 7 9 10 11 12 13 15 15 17 17 17 17 17 17 16 16 18 18 17 18 17 17 18 16 19 21 18 18 17
1 6 4 4 6 6 8 8 7 8 10 11 9 8 8 9 9 10 13 13 14 15 15 15 16 18 19 18 17 17 16 17 17 15 15 15 15 13 13 15 17 17 19 19
4 4 9 10 7 9 9 8 11 12 11 9 10 9 10 10 10 11 12 13 14 13 13 14 15 18 21 20 16 15 14 14 13 13 12 12 12 13 13 11 15 17 18 18
12 13 8 6 5 10 13 12 12 13 11 11 10 10 9 9 9 10 11 10 10 11 12 13 16 20 20 19 18 15 15 16 14 12 11 11 11 11 10 11 12 13 16 16
3 2 7 14 13 10 11 9 8 7 8 9 9 8 7 8 8 7 7 7 7 9 12 15 18 21 21 19 17 15 13 13 14 12 11 11 10 9 9 10 11 12 13 15
10 11 11 11 10 8 7 5 6 6 7 7 7 7 7 6 6 6 5 7 7 8 11 13 15 19 19 18 16 13 12 12 12 10 9 8 7 7 8 8 9 11 12 13
12 7 8 8 7 6 5 5 7 6 6 6 6 5 4 4 4 5 6 6 4 5 9 11 14 18 19 17 14 11 11 11 12 9 9 8 6 6 5 6 7 8 9 11
5 6 9 9 9 8 7 8 9 8 6 7 6 5 4 4 2 3 4 6 3 3 7 10 14 16 17 16 13 10 10 10 10 10 10 9 8 5 3 4 4 5 5 7
9 12 13 14 12 12 12 11 9 10 9 8 7 6 4 3 2 3 6 7 4 5 6 9 12 14 15 15 12 10 10 10 10 10 10 10 8 7 5 3 3 3 3 4
13 14 15 15 13 14 14 13 13 11 8 7 5 4 2 2 4 5 7 7 7 5 6 8 10 13 14 14 12 10 10 10 11 11 10 10 10 9 8 6 4 2 2 3
13 15 16 17 16 15 15 13 11 9 7 5 3 1 1 4 6 8 8 9 9 8 7 8 9 11 12 12 10 10 10 10 10 11 10 10 10 10 9 8 5 4 4 3
14 15 17 18 18 15 12 10 9 8 6 3 1 2 5 7 7 10 10 11 12 10 10 9 9 10 10 11 10 12 10 10 9 10 10 10 11 11 10 8 7 6 5 5
15 16 17 16 15 12 10 8 7 5 3 2 3 4 6 7 8 8 11 11 15 12 12 10 10 11 11 12 12 13 13 13 13 12 11 12 12 12 10 8 7 7 7 6
16 15 15 13 12 10 6 5 4 3 3 3 4 5 6 8 9 8 12 15 16 14 12 12 12 14 14 15 15 16 16 16 15 14 14 13 13 13 12 9 9 10 11 10
16 15 14 12 9 6 5 2 2 3 2 1 4 5 7 7 8 13 15 16 15 14 13 12 15 17 17 18 19 18 19 21 19 18 17 16 14 13 12 12 13 12 13 13
13 11 10 9 6 5 3 1 1 1 1 4 6 8 8 8 11 13 14 15 15 15 15 16 16 16 15 15 15 16 17 18 19 20 20 19 18 16 15 13 13 13 13 13
10 10 8 5 4 5 4 3 3 1 3 5 7 8 10 10 11 13 14 15 16 17 17 17 17 14 14 16 17 18 17 17 18 20 19 20 22 20 17 15 14 13 12 10

GFSNGP_925_spd_123.txt.gz
Wind_Speed
11 3 3 3 2 6 6 8 4 7 5 6 8 9 10 11 11 14 16 19 18 17 18 27 31 33 32 34 31 29 29 30 34 34 37 36 33 34 36 37 35 32 30 33
5 13 11 2 1 5 2 5 8 9 6 3 4 6 9 11 13 14 15 17 18 19 26 27 30 31 30 31 32 31 33 36 35 38 36 35 37 37 37 33 33 33 33 32
4 7 6 9 7 5 5 4 3 3 6 5 4 7 9 10 11 12 13 14 15 16 21 24 26 29 31 30 31 33 34 34 37 38 35 33 28 30 32 33 31 33 33 31
5 3 5 5 7 7 9 5 7 9 8 6 7 7 8 9 9 10 11 12 12 13 17 20 23 24 26 30 31 33 34 34 34 30 27 25 27 30 29 28 29 30 30 31
4 7 5 6 9 6 4 4 2 6 9 8 7 6 10 9 9 9 9 12 15 16 16 17 19 22 25 27 28 26 27 27 29 25 25 28 30 28 27 29 29 31 31 31
4 6 4 6 5 2 1 6 4 5 7 9 8 4 4 6 8 9 11 12 14 16 18 20 21 21 22 22 21 22 22 23 25 24 29 28 26 25 22 23 25 23 26 30
9 8 6 3 3 3 6 5 7 5 7 9 6 5 6 5 6 7 9 13 13 16 19 21 21 21 23 24 25 22 23 24 23 27 25 26 25 24 24 21 22 24 23 23
6 6 10 5 4 3 8 11 9 10 11 13 12 9 7 5 4 7 9 11 13 15 17 19 21 21 22 24 22 21 20 20 21 20 20 19 20 21 24 24 23 23 23 22
5 4 5 3 7 9 8 10 9 11 11 12 11 8 6 5 4 5 8 10 11 13 14 16 18 19 20 21 20 19 20 21 20 21 20 20 21 21 22 23 22 21 22 21
6 5 7 7 7 9 9 9 9 9 10 11 11 9 7 6 5 6 10 11 11 13 15 17 18 20 20 21 21 19 20 20 20 21 21 21 19 20 20 22 21 20 21 20
4 7 9 7 7 8 10 8 9 8 9 9 9 8 7 7 8 9 9 10 11 13 14 15 16 18 19 20 20 19 18 19 20 18 19 19 17 14 16 15 18 17 17 17
1 13 2 11 7 8 9 8 8 8 9 9 9 8 8 8 9 8 9 9 11 12 13 14 15 17 18 19 20 19 18 18 19 18 19 18 17 15 13 14 12 14 16 17
4 9 12 12 10 10 8 8 9 9 9 9 9 10 10 10 9 7 9 10 11 11 12 12 14 15 17 17 16 16 16 15 16 15 16 16 16 16 16 14 12 10 16 17
14 16 12 12 7 12 11 11 10 10 10 10 10 10 10 10 8 8 8 8 9 10 11 12 14 16 17 17 16 15 15 13 15 15 15 16 15 15 15 15 17 17 14 16
11 5 12 13 14 12 13 12 9 9 11 11 10 10 9 8 7 6 6 5 3 7 8 11 12 14 16 16 15 14 14 14 15 14 14 14 15 15 15 16 16 17 17 15
11 14 14 15 14 12 10 9 9 9 10 10 10 9 8 7 6 5 4 6 5 5 6 7 9 12 16 15 15 13 12 12 13 14 14 14 15 15 15 15 16 15 16 11
15 15 14 13 12 11 9 9 11 11 10 10 9 8 8 6 5 4 3 3 3 3 4 6 8 12 14 14 14 12 12 13 13 13 13 14 15 15 16 16 16 15 15 6
10 12 13 13 12 11 10 12 13 13 12 11 10 8 7 4 3 2 1 4 5 7 7 5 9 10 10 11 13 12 12 13 14 14 14 15 16 16 16 16 16 15 14 12
11 12 12 14 14 14 15 15 14 13 12 11 10 8 6 4 2 1 3 5 8 10 0 5 7 8 10 10 13 11 12 14 15 15 14 14 16 15 16 16 16 17 16 14
11 12 14 15 15 16 17 14 15 13 11 10 10 7 4 2 1 3 6 10 11 7 7 9 9 11 10 10 11 12 13 14 14 15 15 15 15 16 16 16 16 16 16 14
13 16 16 15 15 15 15 15 15 13 10 10 7 5 3 1 2 5 8 8 5 5 10 10 10 11 11 9 13 14 14 14 15 15 15 15 16 15 16 16 17 17 16 14
14 15 15 15 15 15 12 12 11 12 10 8 6 4 1 6 8 8 10 4 8 9 11 13 13 12 10 15 15 17 17 17 17 17 17 16 16 16 16 16 16 16 16 14
13 15 15 14 14 14 12 10 10 10 9 6 4 3 4 6 5 6 7 2 10 11 14 14 12 12 13 14 16 18 19 19 19 20 20 19 18 18 17 18 15 16 16 15
16 15 15 14 14 13 11 10 9 8 6 4 5 4 4 6 6 5 5 9 10 14 14 13 12 13 15 17 18 19 18 19 20 21 21 20 22 23 22 19 16 15 14 14
15 16 15 14 12 10 10 10 8 7 5 5 3 3 2 4 5 8 8 9 10 13 14 14 15 14 16 17 18 18 19 21 20 19 22 22 18 19 22 24 25 20 16 14
16 13 13 12 9 9 8 9 6 6 5 4 3 2 2 4 6 7 8 10 11 13 14 14 14 15 15 16 18 19 19 20 21 21 21 21 22 23 22 22 23 24 23 16
12 12 12 10 7 7 6 5 4 5 3 0 3 1 3 4 5 7 9 10 11 13 14 15 16 16 17 17 18 18 18 19 19 19 20 21 22 22 23 22 24 21 24 28

GFSNGP_925_spd_129.txt.gz
Wind_Speed
7 7 9 11 7 4 4 5 5 2 3 5 4 5 2 5 4 7 8 11 12 12 18 25 29 31 32 36 36 34 36 40 39 36 36 41 53 49 44 45 44 37 41 45
5 8 11 13 10 8 7 5 2 4 3 5 8 6 3 5 7 8 9 8 10 11 16 20 24 27 28 32 35 35 36 37 37 39 40 42 40 52 48 42 39 39 40 42
4 4 7 6 9 9 6 5 6 7 4 11 9 7 4 5 7 7 7 5 5 6 11 17 22 21 24 27 30 35 35 35 34 35 35 38 45 44 38 36 31 32 37 41
3 6 3 2 4 6 10 8 10 10 9 7 9 8 6 4 4 4 4 5 5 16 13 20 25 24 23 24 25 29 33 34 34 34 37 38 37 38 37 34 36 36 40 39
2 2 3 1 2 1 5 5 8 11 12 13 10 9 6 3 4 2 5 11 14 20 22 16 25 28 21 27 25 28 30 29 32 34 36 35 37 35 34 29 31 34 35 35
1 3 3 1 6 10 6 2 6 12 15 15 13 4 3 4 2 5 10 16 16 19 21 24 23 26 28 23 30 28 28 26 30 31 36 40 37 33 29 33 32 29 28 34
6 4 1 2 3 5 2 3 4 7 12 12 7 1 9 5 2 2 14 16 19 20 20 21 22 23 26 26 24 28 25 31 29 34 34 36 40 38 33 32 30 30 28 31
4 3 7 3 2 3 2 8 11 12 13 16 14 10 6 2 4 4 15 18 18 18 19 20 21 20 23 26 25 25 27 29 31 26 29 27 34 34 32 31 31 28 26 25
2 2 3 3 3 7 9 9 8 11 12 13 12 9 5 2 3 13 17 18 19 18 17 18 19 20 21 23 24 20 25 28 28 27 24 21 23 27 28 27 27 25 26 26
4 4 5 5 7 9 10 11 10 11 11 11 12 8 5 3 3 14 16 17 18 17 17 17 18 19 19 21 20 20 20 21 20 22 23 22 19 22 25 23 19 18 20 23
4 7 7 6 6 8 10 9 11 11 11 11 11 10 7 8 13 14 15 17 18 17 16 16 20 22 21 21 20 19 18 21 23 22 22 22 19 19 18 15 14 16 20 23
3 11 4 10 10 10 11 10 10 9 9 8 9 10 16 13 15 15 15 15 15 16 15 16 20 21 22 19 20 22 16 20 21 19 19 20 19 18 17 13 12 9 13 18
4 6 10 14 10 11 11 11 12 11 11 9 14 18 18 15 16 17 16 15 13 13 13 14 19 21 21 20 20 22 20 21 22 23 22 21 21 22 23 22 19 8 11 15
14 17 9 12 7 12 14 14 16 14 15 17 19 18 19 16 15 14 11 10 9 10 12 13 15 20 21 20 16 19 19 18 21 22 22 21 22 23 22 23 22 21 8 16
12 4 12 12 15 11 14 14 10 10 14 15 18 18 16 14 12 10 7 7 10 9 8 10 14 17 17 20 16 16 19 19 20 19 20 19 19 20 21 21 19 19 17 15
9 11 12 14 13 11 10 10 10 9 12 13 13 15 15 15 11 9 8 7 5 6 5 6 12 13 14 19 21 15 18 17 19 21 21 20 20 22 22 21 21 21 21 18
14 13 13 10 11 9 8 10 13 11 16 17 18 18 16 14 11 8 7 5 4 3 4 4 10 14 9 11 17 18 17 18 18 19 18 20 18 19 19 19 22 21 21 22
8 8 10 10 9 7 9 16 19 19 17 19 17 16 14 12 10 6 3 3 5 6 6 7 8 11 12 11 11 16 16 17 17 17 16 17 16 19 16 19 18 18 20 20
15 11 17 17 17 16 16 17 17 20 21 20 18 15 13 11 7 3 2 4 10 6 8 9 10 12 12 15 11 12 15 16 19 19 19 17 18 17 17 19 16 16 16 17
15 19 21 19 21 23 20 22 24 22 19 19 18 15 11 7 4 1 2 5 2 2 6 10 14 12 11 8 11 14 17 19 21 22 22 20 20 20 21 20 20 19 19 18
14 18 19 23 21 22 24 24 23 22 19 17 16 13 8 5 2 2 5 7 6 4 7 11 12 11 12 14 16 19 19 21 22 23 23 19 19 20 20 21 22 21 23 24
16 16 19 22 22 21 19 19 21 21 19 15 12 11 6 2 4 4 3 3 6 5 10 9 10 12 14 16 17 17 17 18 21 21 20 22 22 21 20 22 21 21 21 21
19 19 21 21 21 22 18 18 18 19 18 14 12 9 4 2 5 7 10 4 3 8 7 9 11 13 14 14 14 15 19 21 19 19 21 19 18 19 20 21 23 21 22 23
18 18 19 20 24 21 16 16 16 14 13 12 11 9 6 8 11 8 7 5 6 7 9 10 11 13 13 12 14 16 17 17 19 18 17 19 21 22 20 18 18 23 25 25
17 19 20 19 15 13 16 18 14 14 14 13 11 10 7 5 3 5 4 4 6 7 7 9 11 13 13 15 16 16 17 17 16 18 20 21 21 18 18 20 23 23 23 23
17 15 17 17 16 17 18 19 15 17 16 16 17 12 10 7 7 5 3 4 6 7 8 11 12 13 14 15 14 16 16 16 17 19 21 19 16 20 23 25 23 22 23 19
15 16 16 15 17 20 19 20 12 15 14 20 19 14 11 8 6 3 3 4 6 7 9 10 10 12 14 14 14 16 15 15 17 21 18 15 18 21 23 21 23 21 18 23

GFSNGP_925_spd_132.txt.gz
Wind_Speed
6 8 9 13 15 11 10 10 6 5 4 8 8 7 2 3 1 3 3 6 6 7 15 20 22 25 27 30 32 30 31 32 34 37 39 34 39 39 37 45 46 51 54 52
17 11 11 15 16 15 15 5 3 3 4 6 10 9 5 2 2 3 3 5 6 7 14 18 22 23 26 27 29 30 31 31 31 30 33 36 36 38 37 36 42 52 48 49
10 11 7 7 10 11 4 4 6 7 6 11 11 10 6 4 2 1 3 3 5 6 12 17 22 25 24 25 25 28 31 35 36 36 39 39 37 37 42 42 46 47 53 46
3 3 4 6 4 6 10 7 6 4 11 12 11 9 6 4 3 1 3 4 6 14 17 21 24 26 25 26 26 28 32 36 40 38 36 34 33 32 31 34 36 42 42 37
5 5 4 3 1 2 4 4 7 11 10 12 13 9 2 3 1 2 5 8 12 15 18 20 24 25 26 25 27 27 27 30 30 32 33 31 28 27 28 30 38 37 33 33
1 3 3 3 2 5 3 3 9 11 15 17 12 5 4 6 3 2 11 11 14 15 17 19 20 22 26 26 25 28 27 27 26 34 32 28 28 30 32 32 33 35 43 46
7 4 5 2 2 5 2 3 4 14 16 15 6 2 7 6 2 3 13 13 15 17 18 18 18 20 24 25 24 26 28 28 29 27 29 31 30 30 32 33 38 38 38 39
4 3 9 2 1 5 1 6 4 5 6 9 12 12 9 6 2 14 14 13 15 16 17 18 18 18 21 26 24 23 26 28 28 28 25 31 33 33 36 34 33 32 32 30
3 4 2 2 2 1 4 5 4 8 10 13 14 10 7 5 9 13 15 14 14 15 15 18 17 18 19 19 21 20 22 23 23 25 28 29 32 32 34 38 34 29 28 30
4 3 6 5 6 5 6 10 11 10 11 10 13 12 7 8 12 14 15 15 13 12 14 14 16 15 16 15 17 17 18 20 21 24 27 28 30 30 28 26 22 23 25 27
2 4 5 6 5 10 11 12 13 11 12 12 14 13 10 11 14 15 16 15 13 12 11 12 13 15 15 17 15 14 16 17 22 23 24 26 26 24 22 19 16 18 24 28
5 10 4 8 10 12 11 11 11 11 11 14 13 10 17 14 16 17 16 15 14 11 11 11 13 14 13 14 14 12 15 19 21 22 22 22 22 21 21 17 11 14 18 23
4 11 5 12 10 11 10 13 12 11 12 12 18 17 18 16 17 18 16 14 12 11 9 10 13 15 12 13 14 13 16 17 19 18 17 17 20 21 21 19 18 11 15 18
14 16 9 10 6 13 14 14 16 15 15 17 17 17 20 18 16 15 14 14 12 11 10 11 12 13 14 10 12 15 16 16 17 17 16 18 19 17 17 19 19 18 13 17
10 3 9 11 15 12 15 15 10 11 15 14 15 17 17 16 15 13 12 12 10 10 9 10 12 11 13 14 12 14 14 16 16 15 16 17 17 16 15 17 16 15 15 15
8 9 12 13 13 11 9 11 11 10 13 14 14 15 16 17 15 13 13 12 8 8 6 6 9 8 9 12 13 9 12 11 14 14 14 14 14 15 14 17 16 15 16 17
12 11 14 14 11 9 9 10 14 13 13 16 18 19 19 17 15 13 12 10 8 7 6 6 6 6 6 7 6 10 11 13 12 13 13 14 13 15 14 15 16 14 15 15
10 9 10 11 11 9 8 14 17 19 17 22 22 20 19 15 13 10 9 8 8 10 8 6 7 7 8 10 5 8 11 13 15 17 16 15 14 16 16 17 18 17 17 17
17 13 15 16 17 15 15 16 18 20 25 24 22 19 16 13 12 9 7 8 9 7 6 6 7 6 7 8 8 11 15 16 16 17 18 19 18 17 17 17 18 18 20 19
12 18 20 18 21 22 19 22 25 24 23 23 21 18 16 13 9 7 7 7 7 5 4 5 7 7 7 9 11 15 16 15 16 17 18 18 19 18 17 16 18 19 19 18
12 17 19 21 20 21 25 26 26 25 23 22 22 20 16 12 9 7 10 10 8 4 2 4 6 7 10 11 12 13 13 15 17 15 18 17 17 17 17 17 19 20 19 19
15 15 18 20 21 21 23 24 24 25 24 21 18 16 14 10 7 5 7 11 8 2 2 5 7 8 9 10 11 13 14 14 13 13 13 14 15 18 17 16 16 15 21 21
17 19 21 21 21 23 21 21 24 25 23 21 20 16 11 8 7 12 13 9 4 3 3 4 5 7 9 10 11 12 13 13 13 13 14 14 15 13 11 13 16 19 20 20
19 20 20 21 23 21 16 21 21 21 19 18 16 13 14 16 13 10 10 8 5 2 2 3 6 8 9 11 12 13 12 12 13 14 15 15 12 12 15 19 21 20 18 16
19 20 20 20 15 13 17 19 16 17 17 16 14 12 10 10 4 12 9 8 6 2 2 5 7 9 11 11 11 11 12 12 13 15 17 14 13 16 19 20 18 16 16 14
16 14 15 15 15 17 19 18 15 17 18 16 13 12 12 11 12 11 8 5 3 2 4 6 8 9 10 10 10 10 11 12 14 17 16 13 15 18 20 18 16 16 17 22
13 15 14 12 14 17 19 18 18 19 17 18 17 19 16 14 11 8 6 4 2 3 4 5 7 9 10 10 10 10 10 13 15 16 15 15 18 19 21 17 16 18 20 24

GFSNGP_925_spd_135.txt.gz
Wind_Speed
6 7 7 11 14 14 11 12 6 6 6 4 12 9 6 6 4 5 4 5 5 6 14 19 21 23 24 27 32 33 35 35 34 35 38 38 41 42 38 37 40 35 36 43
4 8 12 18 16 18 14 15 14 12 12 3 6 7 6 6 5 5 4 4 5 7 13 16 18 21 23 23 26 29 31 30 30 30 31 34 34 33 38 39 43 41 46 42
12 8 11 10 16 14 4 5 9 10 6 10 6 9 8 6 5 5 5 5 5 6 11 15 19 22 23 21 21 24 26 27 28 27 29 29 30 37 37 41 39 43 44 42
7 5 11 7 3 4 7 6 6 3 5 10 8 5 6 4 5 5 6 5 5 11 15 17 19 23 24 22 21 21 22 26 27 27 29 29 32 34 34 37 42 38 38 35
4 8 9 8 3 3 4 5 6 7 8 9 10 5 1 5 4 4 6 8 8 10 12 15 19 19 23 26 24 23 24 25 29 30 32 34 37 36 34 36 35 33 30 33
3 5 3 4 3 3 3 4 9 10 14 15 11 4 4 8 6 10 13 11 11 11 13 15 16 17 21 24 23 23 24 24 27 30 34 32 32 32 32 31 28 25 28 31
6 5 6 3 3 2 3 4 4 10 14 16 6 2 7 8 7 16 15 13 11 14 15 14 13 16 21 22 22 21 21 23 28 27 28 29 30 30 28 27 26 24 24 30
3 4 8 2 1 5 2 3 1 5 9 11 7 12 12 8 10 16 13 12 11 14 14 14 15 15 18 21 18 18 21 23 23 24 25 29 30 28 25 22 22 24 26 28
5 4 0 1 2 2 3 4 2 5 7 11 13 11 9 9 10 14 13 12 9 10 11 14 14 15 16 16 18 18 20 21 21 23 22 20 19 20 21 21 23 24 26 26
2 4 4 3 2 2 2 4 6 9 12 13 13 10 11 11 13 12 11 10 9 9 11 12 13 13 15 13 17 18 18 19 18 19 21 21 22 20 19 19 20 24 27 27
3 3 2 6 5 6 9 9 11 10 10 13 14 12 12 12 13 12 10 10 9 9 10 11 11 13 14 15 14 14 14 15 20 22 23 24 24 25 26 22 24 25 29 31
6 8 4 3 10 11 12 11 11 13 10 13 14 11 17 13 13 13 13 11 10 9 9 10 12 12 13 13 15 16 14 16 18 19 21 23 23 21 20 20 17 20 22 23
3 8 3 9 11 9 11 11 10 11 14 13 15 18 16 14 13 15 14 12 10 9 9 9 12 12 12 13 13 15 16 15 14 15 18 18 18 20 21 19 17 15 16 18
11 12 6 8 5 8 13 13 16 15 17 19 19 18 17 15 16 14 13 13 12 11 10 10 11 13 10 11 11 11 12 11 10 11 13 13 14 14 15 16 17 18 19 18
6 2 7 10 13 11 15 16 11 11 14 15 16 18 17 16 15 15 17 13 12 12 11 10 9 11 11 8 9 8 7 9 8 9 10 9 11 9 10 13 13 13 16 17
4 8 11 13 13 13 12 11 12 11 13 15 17 16 16 18 19 18 16 14 12 10 8 7 8 7 7 7 7 6 8 9 10 11 10 10 9 10 9 9 10 10 11 12
11 9 11 12 12 12 11 10 13 13 16 16 17 22 23 21 18 16 14 11 11 11 7 6 5 4 3 5 3 6 10 11 12 14 12 13 12 14 15 14 14 15 15 15
5 7 10 10 11 11 10 14 16 18 17 22 24 25 23 21 17 18 15 14 13 9 8 6 5 3 4 4 1 6 9 12 13 11 12 12 12 13 13 13 15 17 18 17
14 11 13 14 16 15 15 15 18 22 24 26 26 23 22 19 20 17 15 16 14 12 6 3 2 3 3 3 4 7 10 10 8 9 11 13 14 14 15 16 17 18 18 19
8 14 17 16 19 18 17 20 23 24 26 27 23 22 20 19 17 16 14 16 11 9 6 6 4 2 3 4 6 8 9 9 9 11 12 11 11 13 14 16 18 15 18 20
8 15 17 19 15 17 22 25 26 25 26 25 26 24 22 18 15 14 15 14 11 8 6 4 2 2 4 6 8 9 9 9 9 9 9 11 13 14 14 13 12 15 20 21
13 13 16 20 19 18 20 23 24 26 25 22 20 21 20 17 14 11 13 15 12 7 5 2 2 3 4 6 7 8 8 8 8 8 10 11 12 12 11 12 15 17 18 18
16 18 19 19 18 20 19 19 21 24 24 22 22 20 18 16 16 17 12 12 10 7 4 2 2 3 5 7 7 8 7 7 7 8 10 11 10 10 12 14 17 18 17 16
16 16 16 17 20 20 15 16 19 21 22 20 19 17 16 15 11 10 9 13 10 7 3 3 2 5 6 6 6 6 6 6 7 10 12 11 10 11 14 17 17 15 14 12
16 16 18 18 14 11 16 18 17 17 18 17 16 13 13 12 7 15 12 11 8 5 3 2 3 4 5 6 6 6 6 8 10 12 12 11 12 14 16 17 15 15 15 18
14 12 13 12 13 16 19 17 15 17 18 17 15 14 14 10 14 15 12 10 7 3 1 2 4 5 5 6 6 6 6 8 11 12 12 12 14 16 18 18 19 18 18 20
12 14 14 11 12 16 19 18 18 17 20 20 19 16 17 17 15 13 10 8 5 3 1 1 3 5 6 6 5 4 6 9 11 11 12 14 17 21 23 23 21 18 17 18

GFSNGP_925_spd_138.txt.gz
Wind_Speed
6 7 7 13 8 9 14 14 12 16 17 17 8 12 11 7 6 4 2 0 1 3 12 18 19 23 24 26 30 32 33 34 36 35 37 39 44 43 46 48 44 41 45 46
4 7 10 15 13 15 21 18 15 17 23 5 3 9 8 9 8 5 4 3 4 6 11 14 15 18 21 24 27 28 30 31 33 34 36 38 37 39 41 42 40 44 43 45
12 5 8 11 9 15 6 6 5 8 8 6 5 10 11 9 8 7 5 5 5 4 10 14 17 19 21 22 23 25 27 29 29 31 31 31 30 31 32 34 37 40 43 45
7 3 7 8 4 6 6 8 7 1 3 3 4 5 6 5 7 7 7 7 6 10 14 15 16 19 20 22 22 22 24 26 28 27 26 28 30 32 33 33 37 37 44 48
4 6 11 11 9 5 4 7 5 7 7 5 7 5 3 5 5 5 6 9 10 10 12 14 15 15 20 22 21 20 22 24 24 26 25 25 28 30 29 31 33 38 38 42
3 6 6 6 3 0 3 6 2 6 10 11 7 3 3 8 6 10 14 12 12 11 12 14 13 14 18 20 21 19 18 20 22 25 27 28 26 27 29 30 31 34 40 43
9 9 6 5 4 2 2 6 1 6 10 13 5 2 6 11 10 16 16 14 12 12 14 12 11 14 18 17 18 17 17 18 21 21 21 24 26 27 28 31 36 37 32 36
3 5 8 2 2 6 2 1 2 3 6 8 5 10 13 12 11 16 15 13 11 13 12 12 11 13 16 17 15 16 18 20 21 21 20 22 23 24 25 27 28 28 27 26
6 5 3 3 4 4 2 1 2 4 7 8 11 10 11 11 10 14 14 12 11 12 11 11 12 12 13 14 14 14 16 19 19 20 19 20 21 22 20 22 24 23 22 21
2 4 6 6 3 3 3 3 2 4 10 11 10 12 12 11 12 13 13 12 11 11 10 10 11 11 12 12 13 13 14 15 18 19 22 18 19 18 19 20 21 21 22 23
5 4 3 7 7 6 4 7 8 7 7 11 14 13 12 11 14 13 13 11 11 10 9 9 10 12 12 14 13 12 13 14 16 19 19 23 20 21 22 22 20 18 22 22
7 4 3 3 10 10 8 6 7 10 10 10 15 13 17 12 12 14 14 14 11 10 10 9 10 11 11 12 14 13 12 13 17 19 19 17 21 22 21 19 17 18 18 20
4 4 3 5 9 8 7 8 9 8 13 12 15 19 15 14 13 16 15 14 11 10 9 9 10 11 11 12 13 16 16 14 16 17 18 20 20 21 22 21 18 20 21 20
8 10 5 6 5 10 11 14 14 15 14 17 18 16 17 14 16 15 14 15 14 12 10 10 10 11 11 10 11 14 15 14 15 16 16 16 16 14 14 18 20 21 19 18
5 1 4 8 12 11 17 18 11 10 13 13 16 17 17 16 15 16 17 14 14 13 12 12 11 11 8 7 9 10 11 11 12 12 12 12 12 13 14 15 16 18 19 18
5 7 10 11 12 12 13 13 12 12 11 13 14 15 16 16 18 19 16 16 16 12 10 10 10 8 6 6 6 6 6 8 11 12 11 10 10 11 15 15 14 15 17 18
12 8 9 10 13 12 12 10 11 12 13 14 15 19 21 21 20 18 16 12 10 12 10 9 8 5 2 2 1 2 6 9 10 9 8 9 8 8 9 8 9 11 14 14
4 7 10 15 13 12 11 13 16 17 15 20 23 23 23 22 17 19 16 15 14 11 10 8 5 2 1 3 1 4 7 8 8 7 6 8 9 8 9 10 12 13 14 15
9 10 13 15 17 15 15 14 17 19 22 26 25 22 23 21 21 20 18 17 14 13 8 4 4 3 2 2 4 6 7 7 5 7 7 7 7 8 10 11 12 11 14 16
7 12 17 14 16 17 15 19 21 21 23 25 23 22 20 20 20 18 17 17 14 9 8 7 4 2 2 3 5 6 6 6 6 6 6 7 9 11 12 11 11 14 16 16
8 14 15 18 16 19 22 24 24 24 24 25 27 24 24 21 18 17 17 13 12 10 7 4 1 1 2 4 5 6 7 7 6 6 8 11 12 11 11 12 14 16 18 19
12 12 15 19 18 16 18 22 22 24 25 24 22 23 23 19 17 15 13 17 15 11 7 3 1 0 3 5 6 7 6 6 6 8 10 11 12 12 13 15 17 19 19 18
15 17 18 18 17 17 17 17 19 24 25 23 24 25 24 22 19 17 12 14 14 11 6 3 1 2 4 6 6 6 5 6 7 9 11 11 11 12 14 17 18 18 18 17
16 16 15 16 19 19 14 14 17 19 22 21 22 23 22 21 15 10 7 16 13 10 6 4 1 2 4 5 5 4 5 6 8 10 10 10 11 12 15 18 18 18 18 19
16 17 17 17 13 10 15 17 17 18 18 18 19 17 16 16 13 15 15 15 12 8 6 4 1 1 3 4 4 4 5 7 8 10 10 11 13 15 18 20 21 22 22 21
13 11 13 13 14 17 18 18 16 19 20 19 18 17 15 12 13 18 16 13 10 7 5 3 2 2 4 5 4 4 5 7 9 10 11 13 16 19 23 24 22 21 20 19
12 14 14 12 12 15 19 20 20 19 22 23 20 17 16 16 19 17 14 12 9 7 5 2 1 3 5 5 3 4 7 9 10 10 13 17 20 22 22 21 19 18 17 17

GFSNGP_925_spd_141.txt.gz
Wind_Speed
9 8 9 13 12 15 17 18 15 23 20 21 15 12 14 12 12 11 9 7 4 5 6 9 11 13 14 17 19 20 21 24 25 25 27 31 37 34 39 43 43 41 41 42
3 10 13 16 9 17 22 20 20 21 24 19 6 5 10 13 14 11 9 7 6 6 6 9 10 11 13 16 19 20 22 23 23 26 28 31 32 34 39 41 42 41 40 40
9 5 9 15 10 13 8 9 10 11 13 4 5 7 10 13 12 12 10 9 7 7 6 7 7 8 12 14 16 19 21 23 24 25 28 29 30 33 35 36 34 36 40 41
9 4 9 5 5 9 11 14 10 14 11 3 2 4 7 8 12 12 11 10 8 8 6 6 6 8 10 12 15 18 20 22 24 25 26 27 29 30 29 29 33 34 37 36
4 8 13 13 10 3 5 12 10 10 5 5 9 7 3 7 9 11 11 12 11 9 7 7 7 8 10 13 13 16 18 19 22 23 24 26 28 28 27 26 29 32 31 35
2 6 7 3 2 2 1 13 6 2 8 11 10 5 4 12 11 14 15 14 12 10 8 8 6 7 10 12 13 14 15 15 15 19 22 23 24 24 24 26 26 27 33 35
10 8 8 6 1 3 5 4 5 2 6 11 6 1 9 14 13 17 15 14 12 10 9 7 7 7 10 11 12 11 12 14 15 15 17 18 18 22 23 24 26 27 29 33
5 6 8 5 4 5 1 2 2 0 6 9 5 10 15 14 14 17 17 14 11 11 9 7 7 8 10 11 9 10 11 13 14 16 16 16 18 17 20 21 23 23 24 24
8 5 2 6 3 1 3 4 3 3 6 10 11 13 13 13 12 16 15 13 11 12 11 8 7 7 9 8 8 9 11 13 14 14 15 16 17 17 18 20 21 21 22 22
3 6 8 7 6 5 6 6 5 5 10 12 13 15 15 13 14 14 13 13 12 12 11 10 8 8 7 7 8 9 11 11 13 15 14 15 15 16 18 19 19 20 21 21
6 9 6 9 9 6 4 4 5 8 9 11 15 15 16 13 15 14 14 12 11 11 11 10 8 7 7 7 6 9 10 11 12 12 14 14 16 17 15 18 19 18 19 20
11 8 7 5 4 9 10 8 8 11 10 12 16 16 20 15 16 15 14 13 12 11 11 10 8 8 8 7 7 8 9 10 10 11 12 11 12 12 15 15 17 19 19 20
13 1 1 3 7 8 8 10 9 9 13 14 17 21 20 18 16 15 14 13 12 12 11 10 9 9 10 9 9 10 9 8 9 9 9 10 10 10 11 13 15 16 17 16
6 8 3 7 5 9 9 12 11 12 15 17 18 19 19 18 18 16 15 14 14 13 11 11 10 10 9 10 10 10 10 10 8 8 8 8 8 9 9 11 14 16 18 17
10 1 1 8 11 11 15 16 12 11 13 15 16 19 19 19 17 15 15 14 13 13 13 12 12 10 8 7 7 7 6 8 10 10 9 9 8 8 9 10 11 13 14 15
9 6 10 12 13 14 14 13 13 12 12 15 16 16 16 16 16 16 15 15 16 13 12 12 10 8 6 4 3 4 6 9 10 9 8 9 9 9 10 11 11 11 13 15
10 8 10 12 13 14 14 13 12 14 15 15 16 20 19 20 19 20 17 16 12 13 12 11 8 5 2 1 1 4 7 8 9 7 7 8 9 9 9 9 10 11 11 12
3 8 13 12 14 13 12 15 16 17 15 16 21 22 21 20 18 20 20 15 16 12 10 9 6 4 3 3 3 5 6 6 5 6 6 7 7 7 7 8 9 10 11 11
7 10 13 14 15 15 15 14 15 15 18 22 23 19 20 20 22 22 19 18 16 13 10 8 7 5 3 2 4 5 5 5 4 5 5 5 5 6 8 9 8 9 10 11
9 12 15 15 16 16 14 17 20 20 21 23 22 21 19 19 22 22 20 15 12 9 11 10 6 3 2 2 4 5 5 5 4 4 5 4 7 7 7 7 7 9 11 12
9 13 14 15 12 16 20 22 22 20 21 23 24 21 21 20 22 22 19 13 13 13 12 8 5 3 1 2 4 5 5 4 4 4 6 7 7 6 6 8 10 11 12 12
10 10 12 16 15 13 16 20 19 20 22 21 19 21 23 21 20 18 15 13 17 15 11 7 5 3 0 2 4 4 3 3 4 4 6 6 6 6 8 10 11 12 12 12
11 14 16 16 15 16 16 15 17 21 23 23 24 24 23 18 17 16 12 14 16 15 10 7 5 3 1 3 2 2 2 3 5 6 6 6 7 9 10 11 13 13 13 14
14 15 14 15 18 16 13 12 14 17 20 20 21 23 22 17 10 9 8 17 16 14 10 7 4 1 0 2 2 1 2 3 5 5 6 7 9 11 12 15 16 17 16 17
15 16 15 16 12 10 13 13 13 13 14 13 15 18 16 16 12 15 14 17 15 12 9 6 4 2 1 2 1 1 2 3 5 7 7 9 11 14 15 16 17 17 17 16
13 11 11 10 10 13 14 14 13 14 16 15 14 15 16 16 11 16 17 17 14 10 7 5 3 0 2 3 2 2 3 5 7 7 8 11 14 16 17 17 17 16 15 15
11 12 11 9 8 11 13 14 16 16 16 18 16 17 16 16 18 19 18 16 12 9 6 4 2 1 2 2 1 2 5 7 7 8 11 13 15 16 16 16 16 15 16 16

GFSNGP_925_spd_144.txt.gz
Wind_Speed
13 14 14 15 15 17 19 20 20 26 24 25 24 23 20 9 14 13 11 9 7 4 2 2 4 6 8 11 12 13 14 16 17 20 22 24 27 29 31 33 37 37 43 44
6 14 16 18 14 19 23 22 23 27 28 21 17 5 3 10 15 14 12 10 8 6 5 2 4 6 7 10 12 13 15 16 17 18 20 22 23 25 29 32 35 39 39 39
11 8 10 14 15 17 16 15 14 17 16 12 10 7 6 12 14 12 12 10 8 6 4 4 4 5 7 9 11 13 15 16 18 18 20 21 22 24 27 30 32 35 35 37
8 10 11 1 2 10 14 18 19 19 20 18 6 1 5 9 12 12 12 11 10 8 6 4 4 5 6 9 10 13 14 16 18 19 20 21 22 23 24 27 30 30 33 34
7 10 15 18 10 6 11 13 12 9 10 4 4 7 5 8 9 11 11 12 11 10 8 6 5 5 7 9 9 11 12 13 15 18 19 21 22 22 22 23 25 28 29 32
9 7 10 2 2 3 5 14 7 6 6 2 6 6 4 11 10 12 14 12 12 10 9 7 6 5 7 7 8 9 10 11 11 14 16 17 19 20 20 20 20 22 26 30
13 11 9 7 3 2 6 2 3 5 3 2 6 4 9 13 13 15 14 13 12 10 8 7 6 5 6 6 6 6 8 9 11 11 12 14 15 18 18 19 19 21 20 22
8 9 11 5 6 5 4 1 4 7 4 5 4 6 12 13 13 16 15 14 12 11 9 7 6 6 6 5 5 6 7 9 10 11 12 13 13 15 17 18 18 18 19 19
6 5 3 5 11 7 5 11 12 9 6 6 9 10 11 13 12 15 15 13 11 11 10 8 6 6 6 4 4 5 7 8 10 10 11 11 13 15 15 16 18 19 20 20
9 8 15 16 14 11 8 10 8 7 8 9 12 14 14 14 13 14 14 13 12 11 10 9 7 6 6 5 4 5 6 7 8 10 10 12 12 13 15 17 16 17 18 20
13 16 17 14 15 12 8 6 5 5 7 10 12 15 16 13 15 15 14 13 12 11 10 10 8 7 5 4 4 5 5 6 7 8 9 9 11 13 12 14 16 15 16 15
11 11 13 13 7 5 6 7 7 9 9 10 14 14 18 14 17 16 15 14 12 12 12 10 9 8 6 5 4 4 4 6 6 7 7 7 7 6 9 10 11 12 12 14
15 16 9 4 4 6 8 8 9 8 10 12 14 18 18 18 18 16 15 14 13 13 12 11 10 8 6 6 6 6 5 5 5 6 6 7 7 7 8 7 5 8 12 12
19 11 9 9 5 8 8 11 11 9 10 13 16 18 18 18 18 17 16 14 14 13 12 11 10 9 7 7 7 6 5 6 5 6 6 6 6 6 7 9 9 9 9 12
19 13 12 2 7 10 12 13 11 10 11 13 17 18 19 18 18 17 16 16 15 14 12 12 11 9 7 6 4 3 2 4 5 5 5 5 6 6 7 8 9 10 11 12
8 10 9 10 11 12 13 13 11 12 11 15 17 18 18 17 18 17 17 16 17 14 13 12 11 9 7 6 4 1 2 4 4 4 5 5 5 6 7 8 8 10 11 13
10 10 11 11 12 14 14 12 11 12 15 15 15 16 17 18 18 17 15 13 11 13 12 11 10 9 6 4 3 0 2 3 5 4 4 5 6 7 8 9 10 10 11 12
14 6 12 10 13 14 12 13 14 16 16 17 18 18 19 19 18 18 17 15 14 13 11 11 10 8 7 5 2 1 2 3 3 4 4 5 6 6 8 9 9 10 11 11
12 10 12 10 14 14 14 14 15 16 17 20 20 18 17 16 18 18 17 16 14 13 12 12 11 8 6 4 3 2 2 2 3 3 4 4 5 7 7 8 9 9 11 12
11 12 12 12 13 16 13 14 17 16 15 17 16 16 16 15 17 18 16 15 12 9 15 13 10 7 6 3 3 2 2 2 2 2 4 5 6 6 7 7 8 9 11 12
9 12 13 14 13 13 14 17 18 16 15 16 17 16 16 15 17 18 17 13 10 13 13 13 8 6 5 3 3 3 2 2 2 3 4 4 5 5 6 7 8 9 10 10
10 10 12 13 13 12 11 13 14 16 16 15 15 18 17 16 16 14 10 9 14 15 12 9 7 7 4 4 3 2 2 3 2 2 3 3 4 5 6 7 8 9 10 10
11 12 13 12 12 13 12 11 13 15 16 17 17 17 17 17 17 15 13 12 14 14 10 8 8 6 4 3 3 3 3 3 2 3 2 3 4 5 6 8 9 10 11 11
13 13 13 12 14 14 12 9 11 11 12 13 14 19 18 17 13 9 8 16 15 15 10 10 8 5 4 3 3 3 2 2 2 2 2 3 4 6 7 8 9 10 10 10
13 13 13 13 12 10 12 13 13 13 14 13 15 15 13 12 11 13 14 15 17 14 11 10 8 6 4 3 3 3 2 1 1 1 2 3 5 7 8 8 8 9 9 9
13 11 11 10 9 12 12 14 12 14 15 15 14 15 13 11 14 15 14 16 14 12 10 9 6 4 3 3 3 3 2 0 1 1 2 4 6 7 7 8 8 9 9 9
10 11 11 10 9 10 11 12 13 14 14 16 16 15 15 14 14 14 16 15 13 11 9 7 5 4 3 3 3 2 1 1 1 1 3 4 6 6 7 7 8 8 9 10